M I D A S
Marine Information and Data Acquisition System
Tripno 2275 of the Zeeleeuw from 2012-03-22 07:52:03 to 2012-03-22 16:22:12
Back to CruiseResearch ActivitiesStationsMapUnderway DataData graphs

EquipmentUnitsComment
TimeDGPSUTC
LatitudeDGPSDM.mWGS84
LongitudeDGPSDM.mWGS84
TemperatureSBE03/SBE38deg celciusITS90
ConductivitySBE21S/mITS90
SalinitySBE21 Practical Salinity Units
ChlorophylAChelsea fluorimeterg/lCalibrated in Aceton
Missing or incorrect values are displayed as -999
Sea surface data collected by the RV Zeeleeuw from 2012-03-22 07:26:42 to 2012-03-22 16:43:41
                                                                                    Next 1000 lines
Time Latitude Longitude Temperature Conductivity Salinity ChlorophylA
2012-03-22 07:26:51 51°13.634 2°56.019 14.7183 0.288077 1.696349 -2.458615
2012-03-22 07:26:57 51°13.634 2°56.019 14.7183 0.288077 1.696349 -2.458615
2012-03-22 07:27:02 51°13.635 2°56.019 14.7199 0.288077 1.696349 -2.458615
2012-03-22 07:27:07 51°13.635 2°56.019 14.7193 0.288077 1.69638 -2.458615
2012-03-22 07:27:11 51°13.635 2°56.019 14.7187 0.288077 1.69638 -2.458615
2012-03-22 07:27:17 51°13.635 2°56.019 14.7254 0.288077 1.69638 -2.458615
2012-03-22 07:27:21 51°13.635 2°56.019 14.7279 0.288077 1.69638 -2.458615
2012-03-22 07:27:26 51°13.635 2°56.018 14.7278 0.288077 1.69638 -2.458615
2012-03-22 07:27:32 51°13.635 2°56.018 14.7282 0.288077 1.69638 -2.458615
2012-03-22 07:27:36 51°13.635 2°56.018 14.7267 0.288077 1.69638 -2.458615
2012-03-22 07:27:42 51°13.635 2°56.018 14.7275 0.288077 1.69638 -2.458615
2012-03-22 07:27:47 51°13.635 2°56.018 14.7281 0.288077 1.69638 -2.458615
2012-03-22 07:27:52 51°13.635 2°56.018 14.7273 0.288077 1.69638 -2.458615
2012-03-22 07:27:56 51°13.635 2°56.018 14.7301 0.288077 1.696411 -2.458615
2012-03-22 07:28:02 51°13.635 2°56.018 14.7314 0.288077 1.696411 -2.458615
2012-03-22 07:28:07 51°13.635 2°56.018 14.7339 0.288077 1.69638 -2.458615
2012-03-22 07:28:12 51°13.635 2°56.018 14.7313 0.288077 1.69638 -2.458615
2012-03-22 07:28:16 51°13.635 2°56.018 14.7303 0.288077 1.696411 -2.458615
2012-03-22 07:28:22 51°13.635 2°56.018 14.7293 0.288077 1.696411 -2.458615
2012-03-22 07:28:27 51°13.635 2°56.018 14.729 0.288077 1.696411 -2.458615
2012-03-22 07:28:32 51°13.635 2°56.018 14.7298 0.288077 1.696411 -2.458615
2012-03-22 07:28:36 51°13.634 2°56.018 14.7284 0.288077 1.696411 -2.458615
2012-03-22 07:28:41 51°13.635 2°56.018 14.7283 0.288077 1.696411 -2.458615
2012-03-22 07:28:46 51°13.635 2°56.018 14.7274 0.288077 1.696411 -2.458615
2012-03-22 07:28:51 51°13.635 2°56.018 14.7279 0.288077 1.696411 -2.458615
2012-03-22 07:28:57 51°13.635 2°56.018 14.7262 0.288077 1.696442 -2.458615
2012-03-22 07:29:01 51°13.635 2°56.019 14.7252 0.288077 1.696442 -2.458615
2012-03-22 07:29:06 51°13.635 2°56.018 14.7235 0.288077 1.696442 -2.458615
2012-03-22 07:29:11 51°13.635 2°56.018 14.7233 0.288077 1.696442 -2.458615
2012-03-22 07:29:16 51°13.635 2°56.017 14.7235 0.288077 1.696411 -2.458615
2012-03-22 07:29:21 51°13.635 2°56.017 14.7225 0.288077 1.696442 -2.458615
2012-03-22 07:29:27 51°13.635 2°56.017 14.7215 0.288077 1.696442 -2.458615
2012-03-22 07:29:32 51°13.635 2°56.017 14.7203 0.288077 1.696442 -2.458615
2012-03-22 07:29:37 51°13.635 2°56.017 14.7217 0.288077 1.696442 -2.458615
2012-03-22 07:29:42 51°13.635 2°56.017 14.7229 0.288077 1.696442 -2.458615
2012-03-22 07:29:46 51°13.635 2°56.017 14.7238 0.288077 1.696442 -2.458615
2012-03-22 07:29:52 51°13.635 2°56.017 14.7255 0.288077 1.696442 -2.458615
2012-03-22 07:29:57 51°13.635 2°56.017 14.7257 0.288077 1.696442 -2.458615
2012-03-22 07:30:02 51°13.635 2°56.017 14.7269 0.288077 1.696473 -2.458615
2012-03-22 07:30:06 51°13.635 2°56.017 14.7291 0.288077 1.696473 -2.458615
2012-03-22 07:30:11 51°13.635 2°56.017 14.7289 0.288077 1.696473 -2.458615
2012-03-22 07:30:16 51°13.635 2°56.017 14.7296 0.288077 1.696473 -2.458615
2012-03-22 07:30:21 51°13.635 2°56.017 14.7306 0.288077 1.696473 -2.458615
2012-03-22 07:30:26 51°13.635 2°56.017 14.7308 0.288077 1.696473 -2.458615
2012-03-22 07:30:31 51°13.635 2°56.018 14.7305 0.288077 1.696473 -2.458615
2012-03-22 07:30:36 51°13.635 2°56.018 14.7298 0.288077 1.696504 -2.458615
2012-03-22 07:30:41 51°13.635 2°56.018 14.7297 0.288077 1.696504 -2.458615
2012-03-22 07:30:46 51°13.635 2°56.018 14.7317 0.288077 1.696473 -2.458615
2012-03-22 07:30:51 51°13.635 2°56.018 14.7328 0.288077 1.696473 -2.458615
2012-03-22 07:30:56 51°13.635 2°56.018 14.7339 0.288077 1.696504 -2.458615
2012-03-22 07:31:01 51°13.635 2°56.018 14.736 0.288077 1.696504 -2.458615
2012-03-22 07:31:07 51°13.635 2°56.018 14.7365 0.288077 1.696504 -2.458615
2012-03-22 07:31:12 51°13.635 2°56.017 14.7368 0.288077 1.696504 -2.458615
2012-03-22 07:31:17 51°13.635 2°56.017 14.7357 0.288077 1.696504 -2.458615
2012-03-22 07:31:22 51°13.636 2°56.017 14.736 0.288077 1.696504 -2.458615
2012-03-22 07:31:27 51°13.636 2°56.017 14.7352 0.288077 1.696504 -2.458615
2012-03-22 07:31:31 51°13.636 2°56.017 14.7339 0.288077 1.696504 -2.458615
2012-03-22 07:31:37 51°13.636 2°56.016 14.7331 0.288077 1.696504 -2.458615
2012-03-22 07:31:42 51°13.636 2°56.016 14.7313 0.288077 1.696504 -2.458615
2012-03-22 07:31:47 51°13.636 2°56.016 14.731 0.288077 1.696504 -2.458615
2012-03-22 07:31:51 51°13.636 2°56.016 14.7308 0.288077 1.696536 -2.458615
2012-03-22 07:31:57 51°13.636 2°56.016 14.7305 0.288077 1.696536 -2.458615
2012-03-22 07:32:02 51°13.636 2°56.016 14.7277 0.288077 1.696536 -2.458615
2012-03-22 07:32:07 51°13.636 2°56.016 14.7281 0.288077 1.696536 -2.458615
2012-03-22 07:32:11 51°13.636 2°56.017 14.7252 0.288077 1.696536 -2.458615
2012-03-22 07:32:16 51°13.636 2°56.017 14.7265 0.288077 1.696536 -2.458615
2012-03-22 07:32:21 51°13.636 2°56.017 14.7307 0.288077 1.696536 -2.458615
2012-03-22 07:32:26 51°13.636 2°56.017 14.7287 0.288077 1.696536 -2.458615
2012-03-22 07:32:32 51°13.636 2°56.017 14.7316 0.288077 1.696567 -2.458615
2012-03-22 07:32:36 51°13.636 2°56.017 14.731 0.288077 1.696567 -2.458615
2012-03-22 07:32:42 51°13.636 2°56.017 14.7322 0.288077 1.696567 -2.458615
2012-03-22 07:32:47 51°13.636 2°56.017 14.731 0.288077 1.696567 -2.458615
2012-03-22 07:32:52 51°13.636 2°56.017 14.732 0.288077 1.696567 -2.458615
2012-03-22 07:32:56 51°13.636 2°56.017 14.7309 0.287974 1.695926 -2.458615
2012-03-22 07:33:02 51°13.636 2°56.017 14.7333 0.288077 1.696567 -2.458615
2012-03-22 07:33:07 51°13.636 2°56.017 14.7341 0.288077 1.696567 -2.458615
2012-03-22 07:33:12 51°13.636 2°56.017 14.7332 0.288077 1.696567 -2.458615
2012-03-22 07:33:16 51°13.636 2°56.017 14.7339 0.287974 1.695957 -2.458615
2012-03-22 07:33:22 51°13.636 2°56.018 14.734 0.288077 1.696567 -2.458615
2012-03-22 07:33:27 51°13.636 2°56.018 14.7345 0.288077 1.696598 -2.458615
2012-03-22 07:33:32 51°13.635 2°56.018 14.7353 0.288077 1.696598 -2.458615
2012-03-22 07:33:36 51°13.635 2°56.018 14.7345 0.288077 1.696598 -2.458615
2012-03-22 07:33:42 51°13.635 2°56.018 14.734 0.288077 1.696598 -2.458615
2012-03-22 07:33:47 51°13.635 2°56.018 14.7327 0.288077 1.696598 -2.458615
2012-03-22 07:33:52 51°13.635 2°56.018 14.7334 0.288077 1.696598 -2.458615
2012-03-22 07:33:57 51°13.635 2°56.018 14.7327 0.288077 1.696598 -2.458615
2012-03-22 07:34:02 51°13.635 2°56.018 14.7328 0.288077 1.696598 -2.458615
2012-03-22 07:34:07 51°13.635 2°56.018 14.7314 0.287974 1.695989 -2.458615
2012-03-22 07:34:11 51°13.635 2°56.018 14.7303 0.287974 1.695989 -2.458615
2012-03-22 07:34:16 51°13.635 2°56.018 14.7303 0.288077 1.696629 -2.458615
2012-03-22 07:34:22 51°13.635 2°56.019 14.7272 0.287974 1.695989 -2.458615
2012-03-22 07:34:27 51°13.635 2°56.019 14.7263 0.288077 1.696629 -2.458615
2012-03-22 07:34:31 51°13.635 2°56.019 14.7246 0.288077 1.696629 -2.458615
2012-03-22 07:34:36 51°13.635 2°56.019 14.7231 0.287974 1.695989 -2.458615
2012-03-22 07:34:42 51°13.635 2°56.019 14.7223 0.287974 1.695989 -2.458615
2012-03-22 07:34:47 51°13.635 2°56.019 14.721 0.287974 1.695989 -2.458615
2012-03-22 07:34:52 51°13.635 2°56.018 14.7198 0.288077 1.696629 -2.458615
2012-03-22 07:34:56 51°13.635 2°56.018 14.7204 0.288077 1.696629 -2.458615
2012-03-22 07:35:01 51°13.635 2°56.018 14.722 0.287974 1.69602 -2.458615
2012-03-22 07:35:07 51°13.635 2°56.018 14.7233 0.288077 1.69666 -2.458615
2012-03-22 07:35:12 51°13.635 2°56.018 14.7241 0.288077 1.69666 -2.458615
2012-03-22 07:35:16 51°13.635 2°56.018 14.7244 0.287974 1.69602 -2.458615
2012-03-22 07:35:21 51°13.635 2°56.018 14.7261 0.287974 1.69602 -2.458615
2012-03-22 07:35:26 51°13.635 2°56.018 14.727 0.287974 1.69602 -2.458615
2012-03-22 07:35:32 51°13.635 2°56.018 14.7275 0.287974 1.69602 -2.458615
2012-03-22 07:35:36 51°13.635 2°56.018 14.7291 0.287974 1.69602 -2.458615
2012-03-22 07:35:41 51°13.635 2°56.018 14.7314 0.287974 1.69602 -2.458615
2012-03-22 07:35:46 51°13.635 2°56.018 14.7335 0.288077 1.696691 -2.458615
2012-03-22 07:35:51 51°13.635 2°56.018 14.736 0.287974 1.696051 -2.458615
2012-03-22 07:35:56 51°13.635 2°56.018 14.7382 0.287974 1.696051 -2.458615
2012-03-22 07:36:02 51°13.635 2°56.018 14.7421 0.287974 1.696051 -2.458615
2012-03-22 07:36:07 51°13.635 2°56.018 14.7414 0.287974 1.696051 -2.458615
2012-03-22 07:36:11 51°13.635 2°56.018 14.743 0.287974 1.696051 -2.458615
2012-03-22 07:36:16 51°13.636 2°56.018 14.7447 0.287974 1.696051 -2.458615
2012-03-22 07:36:22 51°13.636 2°56.018 14.7434 0.287974 1.696051 -2.458615
2012-03-22 07:36:27 51°13.636 2°56.018 14.7446 0.287974 1.696051 -2.458615
2012-03-22 07:36:31 51°13.636 2°56.018 14.7452 0.287974 1.696082 -2.458615
2012-03-22 07:36:36 51°13.636 2°56.018 14.744 0.287974 1.696082 -2.458615
2012-03-22 07:36:42 51°13.636 2°56.018 14.7445 0.287974 1.696082 -2.458615
2012-03-22 07:36:47 51°13.636 2°56.018 14.7451 0.287974 1.696082 -2.458615
2012-03-22 07:36:51 51°13.636 2°56.018 14.7461 0.287974 1.696082 -2.458615
2012-03-22 07:36:56 51°13.636 2°56.018 14.7463 0.287974 1.696082 -2.458615
2012-03-22 07:37:02 51°13.636 2°56.018 14.746 0.287974 1.696082 -2.458615
2012-03-22 07:37:07 51°13.637 2°56.018 14.7472 0.287974 1.696082 -2.458615
2012-03-22 07:37:12 51°13.637 2°56.018 14.7473 0.287974 1.696082 -2.458615
2012-03-22 07:37:16 51°13.637 2°56.018 14.7469 0.287974 1.696082 -2.458615
2012-03-22 07:37:21 51°13.637 2°56.019 14.7486 0.287974 1.696113 -2.458615
2012-03-22 07:37:27 51°13.637 2°56.019 14.7488 0.287974 1.696113 -2.458615
2012-03-22 07:37:32 51°13.637 2°56.019 14.7513 0.287974 1.696113 -2.458615
2012-03-22 07:37:36 51°13.637 2°56.019 14.7513 0.287974 1.696113 -2.458615
2012-03-22 07:37:42 51°13.637 2°56.019 14.7502 0.287974 1.696113 -2.458615
2012-03-22 07:37:46 51°13.637 2°56.019 14.7501 0.287974 1.696113 -2.458615
2012-03-22 07:37:52 51°13.637 2°56.019 14.7498 0.287974 1.696113 -2.458615
2012-03-22 07:37:56 51°13.637 2°56.019 14.7481 0.287974 1.696113 -2.458615
2012-03-22 07:38:01 51°13.637 2°56.019 14.7489 0.287974 1.696113 -2.458615
2012-03-22 07:38:06 51°13.637 2°56.019 14.749 0.287974 1.696113 -2.458615
2012-03-22 07:38:11 51°13.637 2°56.019 14.7491 0.287974 1.696113 -2.458615
2012-03-22 07:38:16 51°13.637 2°56.019 14.7498 0.287974 1.696144 -2.458615
2012-03-22 07:38:22 51°13.637 2°56.019 14.7516 0.287974 1.696144 -2.458615
2012-03-22 07:38:27 51°13.636 2°56.019 14.7502 0.287974 1.696144 -2.458615
2012-03-22 07:38:31 51°13.636 2°56.019 14.7497 0.287974 1.696144 -2.458615
2012-03-22 07:38:36 51°13.636 2°56.019 14.7497 0.287974 1.696144 -2.458615
2012-03-22 07:38:42 51°13.636 2°56.019 14.7486 0.287974 1.696144 -2.458615
2012-03-22 07:38:47 51°13.636 2°56.019 14.7491 0.287974 1.696144 -2.458615
2012-03-22 07:38:51 51°13.636 2°56.019 14.7506 0.287974 1.696144 -2.458615
2012-03-22 07:38:56 51°13.636 2°56.019 14.752 0.287974 1.696175 -2.458615
2012-03-22 07:39:02 51°13.636 2°56.02 14.7531 0.287974 1.696175 -2.458615
2012-03-22 07:39:07 51°13.636 2°56.02 14.7518 0.287974 1.696175 -2.458615
2012-03-22 07:39:12 51°13.636 2°56.02 14.7522 0.287974 1.696175 -2.458615
2012-03-22 07:39:16 51°13.636 2°56.02 14.7538 0.287974 1.696175 -2.458615
2012-03-22 07:39:21 51°13.636 2°56.02 14.754 0.287974 1.696175 -2.458615
2012-03-22 07:39:27 51°13.636 2°56.02 14.7542 0.287974 1.696175 -2.458615
2012-03-22 07:39:32 51°13.636 2°56.02 14.7553 0.287974 1.696175 -2.458615
2012-03-22 07:39:36 51°13.636 2°56.02 14.7558 0.287974 1.696207 -2.458615
2012-03-22 07:39:41 51°13.636 2°56.02 14.7563 0.287974 1.696207 -2.458615
2012-03-22 07:39:46 51°13.636 2°56.021 14.7573 0.287974 1.696175 -2.458615
2012-03-22 07:39:52 51°13.636 2°56.021 14.7545 0.287974 1.696207 -2.458615
2012-03-22 07:39:56 51°13.636 2°56.021 14.7546 0.287974 1.696207 -2.458615
2012-03-22 07:40:01 51°13.636 2°56.021 14.7531 0.287974 1.696207 -2.458615
2012-03-22 07:40:06 51°13.636 2°56.021 14.7534 0.287974 1.696207 -2.458615
2012-03-22 07:40:12 51°13.636 2°56.021 14.7548 0.287974 1.696207 -2.458615
2012-03-22 07:40:16 51°13.636 2°56.021 14.7553 0.287974 1.696207 -2.458615
2012-03-22 07:40:22 51°13.636 2°56.021 14.7556 0.287974 1.696207 -2.458615
2012-03-22 07:40:26 51°13.636 2°56.021 14.7545 0.287974 1.696238 -2.458615
2012-03-22 07:40:31 51°13.636 2°56.021 14.7526 0.287974 1.696238 -2.458615
2012-03-22 07:40:36 51°13.636 2°56.021 14.7505 0.287974 1.696238 -2.458615
2012-03-22 07:40:42 51°13.636 2°56.021 14.7492 0.287974 1.696238 -2.458615
2012-03-22 07:40:46 51°13.636 2°56.021 14.7502 0.287974 1.696238 -2.458615
2012-03-22 07:40:51 51°13.636 2°56.021 14.7512 0.287974 1.696238 -2.458615
2012-03-22 07:40:56 51°13.636 2°56.021 14.752 0.287974 1.696238 -2.458615
2012-03-22 07:41:02 51°13.636 2°56.021 14.7507 0.287974 1.696269 -2.458615
2012-03-22 07:41:07 51°13.636 2°56.021 14.749 0.287974 1.696269 -2.458615
2012-03-22 07:41:11 51°13.636 2°56.021 14.7523 0.287974 1.696269 -2.458615
2012-03-22 07:41:16 51°13.636 2°56.021 14.7525 0.287974 1.696238 -2.458615
2012-03-22 07:41:22 51°13.636 2°56.021 14.7528 0.287974 1.696269 -2.458615
2012-03-22 07:41:27 51°13.636 2°56.021 14.7527 0.287974 1.696269 -2.458615
2012-03-22 07:41:32 51°13.636 2°56.021 14.7532 0.287974 1.696269 -2.458615
2012-03-22 07:41:36 51°13.636 2°56.021 14.7526 0.287974 1.696269 -2.458615
2012-03-22 07:41:41 51°13.636 2°56.021 14.7522 0.287974 1.696269 -2.458615
2012-03-22 07:41:47 51°13.636 2°56.021 14.7536 0.287974 1.696269 -2.458615
2012-03-22 07:41:52 51°13.636 2°56.021 14.7545 0.287974 1.696269 -2.458615
2012-03-22 07:41:56 51°13.636 2°56.021 14.7526 0.287974 1.6963 -2.458615
2012-03-22 07:42:01 51°13.636 2°56.021 14.7534 0.287974 1.6963 -2.458615
2012-03-22 07:42:06 51°13.636 2°56.021 14.7546 0.287974 1.6963 -2.458615
2012-03-22 07:42:12 51°13.636 2°56.021 14.7548 0.287974 1.6963 -2.458615
2012-03-22 07:42:16 51°13.636 2°56.021 14.7578 0.287974 1.6963 -2.458615
2012-03-22 07:42:21 51°13.636 2°56.021 14.7583 0.287974 1.6963 -2.458615
2012-03-22 07:42:26 51°13.636 2°56.021 14.7589 0.287974 1.696331 -2.458615
2012-03-22 07:42:31 51°13.636 2°56.021 14.7601 0.287974 1.6963 -2.458615
2012-03-22 07:42:36 51°13.636 2°56.021 14.7602 0.287974 1.6963 -2.458615
2012-03-22 07:42:42 51°13.636 2°56.021 14.7614 0.287974 1.6963 -2.458615
2012-03-22 07:42:46 51°13.636 2°56.02 14.761 0.287974 1.696331 -2.458615
2012-03-22 07:42:51 51°13.636 2°56.02 14.7623 0.287974 1.6963 -2.458615
2012-03-22 07:42:56 51°13.636 2°56.02 14.7617 0.287974 1.696331 -2.458615
2012-03-22 07:43:02 51°13.636 2°56.02 14.7629 0.287974 1.696331 -2.458615
2012-03-22 07:43:07 51°13.636 2°56.02 14.762 0.287974 1.696331 -2.458615
2012-03-22 07:43:11 51°13.637 2°56.02 14.7627 0.287974 1.696331 -2.458615
2012-03-22 07:43:16 51°13.637 2°56.02 14.7628 0.287974 1.696331 -2.458615
2012-03-22 07:43:22 51°13.637 2°56.02 14.7655 0.287974 1.696331 -2.458615
2012-03-22 07:43:27 51°13.637 2°56.02 14.7686 0.287974 1.696331 -2.458615
2012-03-22 07:43:32 51°13.637 2°56.02 14.7686 0.287974 1.696362 -2.458615
2012-03-22 07:43:36 51°13.637 2°56.02 14.772 0.287974 1.696362 -2.458615
2012-03-22 07:43:42 51°13.637 2°56.02 14.7741 0.287974 1.696362 -2.458615
2012-03-22 07:43:47 51°13.637 2°56.02 14.7725 0.287974 1.696362 -2.458615
2012-03-22 07:43:52 51°13.637 2°56.02 14.7719 0.287974 1.696362 -2.458615
2012-03-22 07:43:56 51°13.637 2°56.02 14.7737 0.287974 1.696362 -2.458615
2012-03-22 07:44:01 51°13.637 2°56.02 14.7742 0.287974 1.696362 -2.458615
2012-03-22 07:44:07 51°13.637 2°56.019 14.7731 0.287974 1.696362 -2.458615
2012-03-22 07:44:12 51°13.637 2°56.019 14.7761 0.287974 1.696362 -2.458615
2012-03-22 07:44:16 51°13.637 2°56.019 14.7755 0.287974 1.696362 -2.458615
2012-03-22 07:44:21 51°13.637 2°56.02 14.7778 0.287974 1.696394 -2.458615
2012-03-22 07:44:26 51°13.637 2°56.02 14.7891 0.287974 1.696362 -2.458615
2012-03-22 07:44:32 51°13.637 2°56.019 14.7647 0.287974 1.696394 -2.458615
2012-03-22 07:44:36 51°13.636 2°56.019 14.774 0.287974 1.696394 -2.458615
2012-03-22 07:44:42 51°13.636 2°56.019 14.7567 0.287974 1.696394 -2.458615
2012-03-22 07:44:46 51°13.636 2°56.019 14.7634 0.287974 1.696394 -2.458615
2012-03-22 07:44:51 51°13.636 2°56.019 14.7693 0.287974 1.696394 -2.458615
2012-03-22 07:44:56 51°13.636 2°56.019 14.7713 0.287974 1.696394 -2.458615
2012-03-22 07:45:02 51°13.636 2°56.019 14.7735 0.287974 1.696394 -2.458615
2012-03-22 07:45:07 51°13.637 2°56.02 14.7774 0.287974 1.696425 -2.458615
2012-03-22 07:45:11 51°13.637 2°56.02 14.7798 0.287974 1.696425 -2.458615
2012-03-22 07:45:16 51°13.637 2°56.019 14.7791 0.287974 1.696394 -2.458615
2012-03-22 07:45:22 51°13.637 2°56.02 14.7795 0.287974 1.696394 -2.458615
2012-03-22 07:45:27 51°13.637 2°56.02 14.7797 0.287974 1.696425 -2.458615
2012-03-22 07:45:31 51°13.637 2°56.019 14.7794 0.287974 1.696394 -2.458615
2012-03-22 07:45:36 51°13.637 2°56.019 14.78 0.287974 1.696425 -2.458615
2012-03-22 07:45:42 51°13.637 2°56.019 14.7805 0.287974 1.696425 -2.458615
2012-03-22 07:45:47 51°13.637 2°56.019 14.78 0.287974 1.696425 -2.458615
2012-03-22 07:45:52 51°13.637 2°56.019 14.78 0.287974 1.696425 -2.458615
2012-03-22 07:45:56 51°13.637 2°56.019 14.7805 0.287974 1.696425 -2.458615
2012-03-22 07:46:02 51°13.637 2°56.019 14.7825 0.287974 1.696425 -2.458615
2012-03-22 07:46:07 51°13.637 2°56.019 14.7814 0.287974 1.696425 -2.458615
2012-03-22 07:46:12 51°13.637 2°56.019 14.781 0.287974 1.696425 -2.458615
2012-03-22 07:46:16 51°13.637 2°56.019 14.778 0.287974 1.696425 -2.458615
2012-03-22 07:46:21 51°13.637 2°56.019 14.7787 0.287974 1.696456 -2.458615
2012-03-22 07:46:26 51°13.637 2°56.019 14.7795 0.287974 1.696456 -2.458615
2012-03-22 07:46:32 51°13.637 2°56.019 14.7761 0.287974 1.696456 -2.458615
2012-03-22 07:46:36 51°13.637 2°56.019 14.775 0.287974 1.696456 -2.458615
2012-03-22 07:46:41 51°13.637 2°56.019 14.7757 0.287974 1.696456 -2.458615
2012-03-22 07:46:46 51°13.637 2°56.019 14.7758 0.287974 1.696425 -2.458615
2012-03-22 07:46:52 51°13.637 2°56.019 14.7792 0.287974 1.696456 -2.458615
2012-03-22 07:46:56 51°13.637 2°56.019 14.7812 0.287974 1.696456 -2.458615
2012-03-22 07:47:02 51°13.637 2°56.019 14.7811 0.287974 1.696456 -2.458615
2012-03-22 07:47:06 51°13.637 2°56.019 14.7824 0.287974 1.696456 -2.458615
2012-03-22 07:47:11 51°13.637 2°56.019 14.7831 0.287974 1.696456 -2.458615
2012-03-22 07:47:16 51°13.637 2°56.019 14.7857 0.287974 1.696487 -2.458615
2012-03-22 07:47:22 51°13.637 2°56.019 14.784 0.287974 1.696456 -2.458615
2012-03-22 07:47:26 51°13.637 2°56.019 14.7818 0.287974 1.696456 -2.458615
2012-03-22 07:47:31 51°13.637 2°56.019 14.7843 0.287974 1.696487 -2.458615
2012-03-22 07:47:36 51°13.637 2°56.019 14.7818 0.287974 1.696487 -2.458615
2012-03-22 07:47:42 51°13.637 2°56.019 14.7811 0.287974 1.696487 -2.458615
2012-03-22 07:47:47 51°13.637 2°56.019 14.7787 0.287974 1.696487 -2.458615
2012-03-22 07:47:51 51°13.637 2°56.019 14.7802 0.287974 1.696487 -2.458615
2012-03-22 07:47:56 51°13.637 2°56.019 14.7787 0.287974 1.696487 -2.458615
2012-03-22 07:48:02 51°13.636 2°56.019 14.7797 0.287974 1.696487 -2.458615
2012-03-22 07:48:07 51°13.636 2°56.019 14.7796 0.287974 1.696487 -2.458615
2012-03-22 07:48:12 51°13.636 2°56.019 14.7798 0.287974 1.696487 -2.458615
2012-03-22 07:48:16 51°13.636 2°56.019 14.7819 0.287974 1.696487 -2.458615
2012-03-22 07:48:21 51°13.636 2°56.019 14.7831 0.287974 1.696487 -2.458615
2012-03-22 07:48:27 51°13.636 2°56.019 14.7854 0.287974 1.696487 -2.458615
2012-03-22 07:48:32 51°13.636 2°56.019 14.7862 0.287974 1.696518 -2.458615
2012-03-22 07:48:36 51°13.636 2°56.019 14.7884 0.287974 1.696518 -2.458615
2012-03-22 07:48:41 51°13.636 2°56.019 14.7966 0.287974 1.696518 -2.458615
2012-03-22 07:48:46 51°13.636 2°56.019 14.8213 0.287974 1.696518 -2.458615
2012-03-22 07:48:52 51°13.636 2°56.019 14.8278 0.287974 1.696518 -2.458615
2012-03-22 07:48:56 51°13.636 2°56.019 14.8236 0.287974 1.696549 -2.458615
2012-03-22 07:49:01 51°13.636 2°56.019 14.8234 0.287974 1.696549 -2.458615
2012-03-22 07:49:06 51°13.636 2°56.019 14.8228 0.287974 1.696549 -2.458615
2012-03-22 07:49:12 51°13.636 2°56.019 14.8215 0.287974 1.696549 -2.458615
2012-03-22 07:49:16 51°13.636 2°56.019 14.8202 0.287974 1.696549 -2.458615
2012-03-22 07:49:22 51°13.636 2°56.019 14.8196 0.287974 1.696549 -2.458615
2012-03-22 07:49:26 51°13.636 2°56.019 14.8146 0.287974 1.696549 -2.458615
2012-03-22 07:49:31 51°13.636 2°56.018 14.8124 0.287974 1.696549 -2.458615
2012-03-22 07:49:36 51°13.636 2°56.018 14.8134 0.287974 1.696549 -2.458615
2012-03-22 07:49:41 51°13.636 2°56.018 14.8113 0.287974 1.696549 -2.458615
2012-03-22 07:49:47 51°13.636 2°56.018 14.8126 0.287974 1.696549 -2.458615
2012-03-22 07:49:51 51°13.636 2°56.018 14.813 0.287974 1.696581 -2.458615
2012-03-22 07:49:56 51°13.636 2°56.018 14.8148 0.287974 1.696581 -2.458615
2012-03-22 07:50:02 51°13.636 2°56.018 14.8106 0.287974 1.696581 -2.458615
2012-03-22 07:50:06 51°13.636 2°56.018 14.8103 0.287974 1.696581 -2.458615
2012-03-22 07:50:11 51°13.636 2°56.018 14.8056 0.287974 1.696581 -2.458615
2012-03-22 07:50:16 51°13.636 2°56.019 14.8041 0.287974 1.696581 -2.458615
2012-03-22 07:50:22 51°13.636 2°56.019 14.8054 0.287974 1.696612 -2.458615
2012-03-22 07:50:27 51°13.636 2°56.019 14.8063 0.287974 1.696612 -2.458615
2012-03-22 07:50:32 51°13.636 2°56.019 14.807 0.287974 1.696612 -2.458615
2012-03-22 07:50:36 51°13.636 2°56.019 14.8086 0.287974 1.696612 -2.458615
2012-03-22 07:50:41 51°13.636 2°56.019 14.812 0.287974 1.696612 -2.458615
2012-03-22 07:50:47 51°13.636 2°56.019 14.8367 0.287974 1.696612 -2.458615
2012-03-22 07:50:52 51°13.636 2°56.019 14.8287 0.287974 1.696612 -2.458615
2012-03-22 07:50:56 51°13.636 2°56.019 14.8318 0.287974 1.696612 -2.458615
2012-03-22 07:51:01 51°13.636 2°56.019 14.8291 0.287974 1.696612 -2.458615
2012-03-22 07:51:06 51°13.636 2°56.019 14.8319 0.287974 1.696643 -2.458615
2012-03-22 07:51:12 51°13.636 2°56.019 14.8306 0.287974 1.696643 -2.458615
2012-03-22 07:51:16 51°13.636 2°56.019 14.8304 0.287974 1.696643 -2.458615
2012-03-22 07:51:21 51°13.636 2°56.019 14.829 0.287974 1.696643 -2.458615
2012-03-22 07:51:26 51°13.636 2°56.019 14.8288 0.287974 1.696674 -2.458615
2012-03-22 07:51:31 51°13.636 2°56.019 14.828 0.287974 1.696674 -2.458615
2012-03-22 07:51:36 51°13.636 2°56.019 14.8285 0.287974 1.696674 -2.458615
2012-03-22 07:51:42 51°13.635 2°56.019 14.8265 0.287974 1.696674 -2.458615
2012-03-22 07:51:46 51°13.635 2°56.019 14.8275 0.287974 1.696674 -2.458615
2012-03-22 07:51:51 51°13.635 2°56.019 14.8298 0.287974 1.696674 -2.458615
2012-03-22 07:51:56 51°13.635 2°56.019 14.8311 0.287974 1.696674 -2.458615
2012-03-22 07:52:02 51°13.635 2°56.019 14.831 0.287974 1.696674 -2.458615
2012-03-22 07:52:07 51°13.635 2°56.019 14.8311 0.287974 1.696674 -2.458615
2012-03-22 07:52:11 51°13.635 2°56.019 14.8305 0.287974 1.696674 -2.458615
2012-03-22 07:52:16 51°13.635 2°56.019 14.8286 0.287974 1.696674 -2.458615
2012-03-22 07:52:22 51°13.635 2°56.019 14.8292 0.287974 1.696674 -2.458615
2012-03-22 07:52:27 51°13.634 2°56.018 14.8263 0.287974 1.696705 -2.458615
2012-03-22 07:52:32 51°13.634 2°56.018 14.8266 0.287974 1.696705 -2.458615
2012-03-22 07:52:36 51°13.634 2°56.018 14.8236 0.287974 1.696705 -2.458615
2012-03-22 07:52:41 51°13.634 2°56.018 14.7391 0.287974 1.696705 -2.458615
2012-03-22 07:52:46 51°13.634 2°56.017 14.6802 0.287974 1.696737 -2.458615
2012-03-22 07:52:51 51°13.635 2°56.016 14.7029 0.287974 1.696737 -2.458615
2012-03-22 07:52:56 51°13.635 2°56.013 14.686 0.287974 1.696705 -2.458615
2012-03-22 07:53:01 51°13.635 2°56.009 14.7971 0.287974 1.696737 -2.458615
2012-03-22 07:53:06 51°13.636 2°56.004 14.8291 0.287974 1.696737 -2.458615
2012-03-22 07:53:11 51°13.636 2°55.998 14.7709 0.287974 1.696737 -2.458615
2012-03-22 07:53:16 51°13.637 2°55.992 14.8143 0.287974 1.696737 -2.458615
2012-03-22 07:53:21 51°13.638 2°55.986 14.8137 0.287974 1.696737 -2.458615
2012-03-22 07:53:26 51°13.64 2°55.979 14.8208 0.287974 1.696768 -2.458615
2012-03-22 07:53:31 51°13.641 2°55.972 14.8417 0.287974 1.696768 -2.458615
2012-03-22 07:53:36 51°13.642 2°55.965 14.8308 0.287974 1.696737 -2.458615
2012-03-22 07:53:41 51°13.643 2°55.958 14.8293 0.287974 1.696737 -2.458615
2012-03-22 07:53:46 51°13.644 2°55.95 14.8333 0.287974 1.696737 -2.458615
2012-03-22 07:53:51 51°13.646 2°55.943 14.8428 0.287974 1.696737 -2.458615
2012-03-22 07:53:56 51°13.647 2°55.935 14.8439 0.287974 1.696737 -2.458615
2012-03-22 07:54:01 51°13.648 2°55.928 14.8351 0.287974 1.696768 -2.458615
2012-03-22 07:54:06 51°13.65 2°55.92 14.8281 0.287974 1.696737 -2.458615
2012-03-22 07:54:11 51°13.652 2°55.912 14.8495 0.287974 1.696737 -2.458615
2012-03-22 07:54:16 51°13.653 2°55.905 14.8448 0.287974 1.696737 -2.458615
2012-03-22 07:54:21 51°13.656 2°55.897 14.8548 0.287974 1.696768 -2.458615
2012-03-22 07:54:26 51°13.658 2°55.889 14.8886 0.287974 1.696768 -2.458615
2012-03-22 07:54:31 51°13.659 2°55.881 14.8932 0.287974 1.696768 -2.458615
2012-03-22 07:54:36 51°13.662 2°55.873 14.8837 0.287974 1.696768 -2.458615
2012-03-22 07:54:41 51°13.664 2°55.865 14.8841 0.287974 1.696768 -2.458615
2012-03-22 07:54:46 51°13.667 2°55.857 14.8599 0.287871 1.696127 -2.458615
2012-03-22 07:54:51 51°13.669 2°55.85 14.8621 0.287974 1.696768 -2.458615
2012-03-22 07:54:56 51°13.672 2°55.842 14.874 0.287974 1.696799 -2.458615
2012-03-22 07:55:01 51°13.675 2°55.834 14.8638 0.287974 1.696768 -2.458615
2012-03-22 07:55:06 51°13.678 2°55.827 14.8402 0.287974 1.696799 -2.458615
2012-03-22 07:55:11 51°13.681 2°55.819 14.8564 0.287974 1.696799 -2.458615
2012-03-22 07:55:16 51°13.684 2°55.812 14.856 0.287871 1.696158 -2.458615
2012-03-22 07:55:21 51°13.688 2°55.804 14.8567 0.287871 1.696158 -2.458615
2012-03-22 07:55:26 51°13.692 2°55.797 14.869 0.287974 1.696799 -2.458615
2012-03-22 07:55:31 51°13.695 2°55.79 14.8703 0.287871 1.696189 -2.458615
2012-03-22 07:55:36 51°13.699 2°55.783 14.8694 0.287974 1.696799 -2.458615
2012-03-22 07:55:41 51°13.704 2°55.776 14.8641 0.287974 1.696799 -2.458615
2012-03-22 07:55:46 51°13.707 2°55.77 14.8594 0.287871 1.696189 -2.458615
2012-03-22 07:55:51 51°13.711 2°55.763 14.8566 0.287871 1.696158 -2.458615
2012-03-22 07:55:56 51°13.716 2°55.756 14.856 0.287974 1.69683 -2.458615
2012-03-22 07:56:01 51°13.72 2°55.749 14.8383 0.287871 1.696189 -2.458615
2012-03-22 07:56:06 51°13.724 2°55.742 14.8303 0.287871 1.696189 -2.458615
2012-03-22 07:56:11 51°13.729 2°55.736 14.8297 0.287871 1.696189 -2.458615
2012-03-22 07:56:16 51°13.733 2°55.729 14.8263 0.287871 1.696189 -2.458615
2012-03-22 07:56:21 51°13.738 2°55.722 14.8209 0.287871 1.696189 -2.458615
2012-03-22 07:56:26 51°13.742 2°55.716 14.8215 0.287974 1.696861 -2.458615
2012-03-22 07:56:31 51°13.747 2°55.71 14.818 0.287974 1.696861 -2.458615
2012-03-22 07:56:36 51°13.752 2°55.704 14.8235 0.287871 1.696252 -2.458615
2012-03-22 07:56:41 51°13.757 2°55.697 14.8251 0.287871 1.696252 -2.458615
2012-03-22 07:56:46 51°13.763 2°55.691 14.8285 0.287871 1.69622 -2.458615
2012-03-22 07:56:51 51°13.768 2°55.686 14.8285 0.287871 1.696252 -2.458615
2012-03-22 07:56:56 51°13.773 2°55.68 14.83 0.287871 1.696252 -2.458615
2012-03-22 07:57:01 51°13.779 2°55.674 14.831 0.287871 1.696252 -2.458615
2012-03-22 07:57:06 51°13.784 2°55.669 14.8317 0.287871 1.696252 -2.458615
2012-03-22 07:57:11 51°13.79 2°55.663 14.8334 0.287871 1.696252 -2.458615
2012-03-22 07:57:16 51°13.795 2°55.658 14.8359 0.287871 1.696252 -2.458615
2012-03-22 07:57:21 51°13.801 2°55.653 14.8345 0.287871 1.696283 -2.458615
2012-03-22 07:57:26 51°13.806 2°55.648 14.8414 0.287871 1.696283 -2.458615
2012-03-22 07:57:31 51°13.812 2°55.643 14.8052 0.287871 1.696283 -2.458615
2012-03-22 07:57:36 51°13.818 2°55.638 14.8169 0.287871 1.696314 -2.458615
2012-03-22 07:57:41 51°13.824 2°55.634 14.8222 0.287871 1.696314 -2.458615
2012-03-22 07:57:46 51°13.83 2°55.63 14.8484 0.287871 1.696314 -2.458615
2012-03-22 07:57:51 51°13.836 2°55.626 14.8642 0.287871 1.696314 -2.458615
2012-03-22 07:57:56 51°13.842 2°55.621 14.8522 0.287871 1.696345 -2.458615
2012-03-22 07:58:01 51°13.847 2°55.617 14.8829 0.287871 1.696345 -2.458615
2012-03-22 07:58:06 51°13.853 2°55.614 14.8519 0.287871 1.696345 -2.458615
2012-03-22 07:58:11 51°13.859 2°55.611 14.8578 0.287871 1.696345 -2.458615
2012-03-22 07:58:16 51°13.864 2°55.608 14.8511 0.287871 1.696376 -2.458615
2012-03-22 07:58:21 51°13.87 2°55.605 14.8629 0.287871 1.696376 -2.458615
2012-03-22 07:58:26 51°13.875 2°55.603 14.8322 0.287871 1.696345 -2.458615
2012-03-22 07:58:31 51°13.881 2°55.601 14.8126 0.287871 1.696376 -2.458615
2012-03-22 07:58:36 51°13.886 2°55.6 14.8695 0.287871 1.696376 -2.458615
2012-03-22 07:58:41 51°13.891 2°55.599 14.8672 0.287871 1.696376 -2.458615
2012-03-22 07:58:46 51°13.896 2°55.598 14.8431 0.287871 1.696376 -2.458615
2012-03-22 07:58:51 51°13.901 2°55.597 14.8484 0.287871 1.696408 -2.458615
2012-03-22 07:58:56 51°13.906 2°55.597 14.8638 0.287871 1.696408 -2.458615
2012-03-22 07:59:01 51°13.911 2°55.597 14.8691 0.287871 1.696408 -2.458615
2012-03-22 07:59:06 51°13.916 2°55.598 14.8639 0.287871 1.696408 -2.458615
2012-03-22 07:59:11 51°13.92 2°55.599 14.8703 0.287871 1.696408 -2.458615
2012-03-22 07:59:16 51°13.925 2°55.6 14.8675 0.287871 1.696439 -2.458615
2012-03-22 07:59:21 51°13.929 2°55.602 14.8801 0.287871 1.696439 -2.458615
2012-03-22 07:59:26 51°13.934 2°55.604 14.8922 0.287871 1.69647 -2.458615
2012-03-22 07:59:31 51°13.938 2°55.607 14.8878 0.287871 1.696439 -2.458615
2012-03-22 07:59:36 51°13.941 2°55.61 14.8706 0.287871 1.69647 -2.458615
2012-03-22 07:59:41 51°13.945 2°55.613 14.8571 0.287871 1.69647 -2.458615
2012-03-22 07:59:46 51°13.949 2°55.616 14.8498 0.287871 1.696501 -2.458615
2012-03-22 07:59:51 51°13.953 2°55.619 14.8517 0.287871 1.69647 -2.458615
2012-03-22 07:59:56 51°13.956 2°55.623 14.8564 0.287871 1.696501 -2.458615
2012-03-22 08:00:01 51°13.96 2°55.627 14.8468 0.287871 1.69647 -2.458615
2012-03-22 08:00:06 51°13.963 2°55.632 14.8812 0.287871 1.696501 -2.458615
2012-03-22 08:00:11 51°13.966 2°55.635 14.8648 0.287871 1.696501 -2.458615
2012-03-22 08:00:16 51°13.969 2°55.64 14.9155 0.287871 1.696501 -2.458615
2012-03-22 08:00:21 51°13.972 2°55.643 14.878 0.287871 1.696501 -2.458615
2012-03-22 08:00:26 51°13.974 2°55.647 14.8885 0.287871 1.696501 -2.458615
2012-03-22 08:00:31 51°13.976 2°55.65 14.898 0.287871 1.696501 -2.458615
2012-03-22 08:00:36 51°13.978 2°55.653 14.9139 0.287871 1.696501 -2.458615
2012-03-22 08:00:41 51°13.979 2°55.655 14.9265 0.287871 1.696501 -2.458615
2012-03-22 08:00:46 51°13.98 2°55.655 14.9141 0.287871 1.696532 -2.458615
2012-03-22 08:00:51 51°13.981 2°55.655 14.9023 0.287871 1.696501 -2.458615
2012-03-22 08:00:56 51°13.981 2°55.655 14.8207 0.287871 1.696501 -2.458615
2012-03-22 08:01:01 51°13.981 2°55.653 14.7868 0.287871 1.696532 -2.458615
2012-03-22 08:01:06 51°13.981 2°55.65 14.7362 0.287871 1.696563 -2.458615
2012-03-22 08:01:11 51°13.982 2°55.647 14.7112 0.287871 1.696563 -2.458615
2012-03-22 08:01:16 51°13.982 2°55.644 14.6351 0.287871 1.696595 -2.458615
2012-03-22 08:01:21 51°13.983 2°55.639 14.6346 0.287871 1.696595 -2.458615
2012-03-22 08:01:26 51°13.984 2°55.635 14.6585 0.287871 1.696626 -2.458615
2012-03-22 08:01:31 51°13.985 2°55.629 14.8588 0.287871 1.696626 -2.458615
2012-03-22 08:01:36 51°13.987 2°55.624 14.5827 0.287871 1.696626 -2.458615
2012-03-22 08:01:41 51°13.989 2°55.618 14.7896 0.287871 1.696626 -2.458615
2012-03-22 08:01:46 51°13.992 2°55.611 14.8068 0.287871 1.696595 -2.458615
2012-03-22 08:01:51 51°13.995 2°55.604 14.8267 0.287871 1.696595 -2.458615
2012-03-22 08:01:56 51°13.998 2°55.597 14.834 0.287871 1.696595 -2.458615
2012-03-22 08:02:01 51°14.002 2°55.59 14.8268 0.287871 1.696595 -2.458615
2012-03-22 08:02:06 51°14.006 2°55.582 14.8159 0.287871 1.696563 -2.458615
2012-03-22 08:02:11 51°14.01 2°55.573 14.8163 0.287871 1.696563 -2.458615
2012-03-22 08:02:16 51°14.015 2°55.565 14.8046 0.287871 1.696595 -2.458615
2012-03-22 08:02:21 51°14.02 2°55.556 14.7841 0.287871 1.696595 -2.458615
2012-03-22 08:02:26 51°14.026 2°55.548 14.7438 0.287871 1.696563 -2.458615
2012-03-22 08:02:31 51°14.032 2°55.539 14.7202 0.287871 1.696595 -2.458615
2012-03-22 08:02:36 51°14.039 2°55.531 14.7067 0.287871 1.696626 -2.458615
2012-03-22 08:02:41 51°14.045 2°55.522 14.7086 0.287871 1.696626 -2.458615
2012-03-22 08:02:46 51°14.052 2°55.514 14.6937 0.287871 1.696657 -2.458615
2012-03-22 08:02:51 51°14.06 2°55.505 14.6943 0.287871 1.696657 -2.458615
2012-03-22 08:02:56 51°14.067 2°55.496 14.7095 0.287871 1.696657 -2.458615
2012-03-22 08:03:01 51°14.076 2°55.488 14.6835 0.287871 1.696657 -2.458615
2012-03-22 08:03:06 51°14.084 2°55.478 14.6616 0.287871 1.696657 -2.458615
2012-03-22 08:03:11 51°14.093 2°55.469 14.6885 0.287871 1.696657 -2.458615
2012-03-22 08:03:16 51°14.102 2°55.459 14.6567 0.287871 1.696657 -2.458615
2012-03-22 08:03:21 51°14.111 2°55.45 14.6166 0.287871 1.696657 -2.458615
2012-03-22 08:03:26 51°14.12 2°55.44 14.6135 0.287871 1.696657 -2.458615
2012-03-22 08:03:31 51°14.13 2°55.43 14.5502 0.287871 1.696657 -2.458615
2012-03-22 08:03:36 51°14.14 2°55.421 14.6345 0.287871 1.696657 -2.458615
2012-03-22 08:03:41 51°14.149 2°55.41 14.6304 0.287871 1.696657 -2.458615
2012-03-22 08:03:46 51°14.159 2°55.4 14.6135 0.287871 1.696688 -2.458615
2012-03-22 08:03:51 51°14.169 2°55.39 14.6353 0.287871 1.696688 -2.458615
2012-03-22 08:03:56 51°14.179 2°55.38 14.6513 0.287871 1.696719 -2.458615
2012-03-22 08:04:01 51°14.188 2°55.369 14.6394 0.287871 1.696751 -2.458615
2012-03-22 08:04:06 51°14.199 2°55.359 14.607 0.287871 1.696751 -2.458615
2012-03-22 08:04:11 51°14.209 2°55.349 14.5399 0.287871 1.696751 -2.458615
2012-03-22 08:04:16 51°14.219 2°55.339 14.5362 0.287871 1.696751 -2.458615
2012-03-22 08:04:21 51°14.229 2°55.33 14.5651 0.287871 1.696751 -2.458615
2012-03-22 08:04:26 51°14.239 2°55.32 14.5857 0.287871 1.696751 -2.458615
2012-03-22 08:04:31 51°14.25 2°55.31 14.6218 0.287871 1.696751 -2.458615
2012-03-22 08:04:36 51°14.261 2°55.301 14.6604 0.287871 1.696751 -2.458615
2012-03-22 08:04:41 51°14.271 2°55.291 14.6617 0.287871 1.696751 -2.458615
2012-03-22 08:04:46 51°14.282 2°55.282 14.7405 0.287871 1.696751 -2.458615
2012-03-22 08:04:51 51°14.292 2°55.271 14.6904 0.287871 1.696782 -2.458615
2012-03-22 08:04:56 51°14.303 2°55.261 14.6892 0.287871 1.696782 -2.458615
2012-03-22 08:05:01 51°14.313 2°55.251 14.7006 0.287871 1.696782 -2.458615
2012-03-22 08:05:06 51°14.324 2°55.241 14.6731 0.287871 1.696782 -2.458615
2012-03-22 08:05:11 51°14.334 2°55.232 14.6635 0.287871 1.696782 -2.458615
2012-03-22 08:05:16 51°14.345 2°55.222 14.6508 0.287871 1.696782 -2.458615
2012-03-22 08:05:21 51°14.356 2°55.212 12.9505 0.287871 1.696719 -2.458615
2012-03-22 08:05:26 51°14.367 2°55.202 12.0839 0.287768 1.694459 -2.458615
2012-03-22 08:05:31 51°14.377 2°55.192 10.7119 0.287665 1.692451 -2.458615
2012-03-22 08:05:36 51°14.388 2°55.181 10.001 0.451444 2.741109 -2.458615
2012-03-22 08:05:41 51°14.398 2°55.17 9.3519 0.451444 2.741109 -2.458615
2012-03-22 08:05:46 51°14.409 2°55.159 8.7831 1.614234 11.182032 -2.458615
2012-03-22 08:05:51 51°14.42 2°55.148 8.5785 2.745341 20.888398 -2.458615
2012-03-22 08:05:56 51°14.431 2°55.137 8.3887 3.096101 24.475259 -2.458615
2012-03-22 08:06:01 51°14.442 2°55.126 8.4025 3.129107 25.22803 -2.458615
2012-03-22 08:06:06 51°14.453 2°55.115 8.2285 3.354589 28.141741 -2.458615
2012-03-22 08:06:11 51°14.465 2°55.104 8.123 3.354589 28.141741 -2.458615
2012-03-22 08:06:16 51°14.476 2°55.092 8.0908 3.416184 29.390697 -2.458615
2012-03-22 08:06:21 51°14.489 2°55.08 8.0099 3.380072 29.908952 -2.458615
2012-03-22 08:06:26 51°14.501 2°55.068 7.9445 3.300078 29.704133 -2.458615
2012-03-22 08:06:31 51°14.513 2°55.055 7.9573 3.273384 29.806663 -2.458615
2012-03-22 08:06:36 51°14.526 2°55.043 7.9444 3.229409 29.621797 -2.458615
2012-03-22 08:06:40 51°14.535 2°55.031 7.8476 3.229409 29.621797 -2.458615
2012-03-22 08:06:45 51°14.547 2°55.015 7.8169 3.195681 29.508003 -2.458615
2012-03-22 08:06:50 51°14.559 2°54.999 7.8351 3.158437 29.2909 -2.458615
2012-03-22 08:06:55 51°14.572 2°54.983 7.8314 3.141162 29.254468 -2.458615
2012-03-22 08:07:00 51°14.585 2°54.966 7.755 3.122438 29.156191 -2.458615
2012-03-22 08:07:04 51°14.595 2°54.953 7.8146 3.114267 29.141789 -2.458615
2012-03-22 08:07:09 51°14.608 2°54.936 7.8118 3.114267 29.141789 -2.458615
2012-03-22 08:07:14 51°14.621 2°54.919 7.7946 3.096061 29.037691 -2.458615
2012-03-22 08:07:19 51°14.635 2°54.902 7.7536 3.083132 28.954806 -2.458615
2012-03-22 08:07:24 51°14.649 2°54.885 7.75 3.072167 28.885366 -2.458615
2012-03-22 08:07:28 51°14.66 2°54.871 7.6542 3.065651 28.846985 -2.458615
2012-03-22 08:07:33 51°14.673 2°54.854 7.6148 3.058721 28.807253 -2.458615
2012-03-22 08:07:38 51°14.688 2°54.838 7.5898 3.058721 28.807253 -2.458615
2012-03-22 08:07:43 51°14.702 2°54.821 7.5909 3.05717 28.805403 -2.458615
2012-03-22 08:07:48 51°14.716 2°54.805 7.5298 3.055722 28.808395 -2.458615
2012-03-22 08:07:53 51°14.73 2°54.788 7.5181 3.05686 28.841361 -2.458615
2012-03-22 08:07:58 51°14.745 2°54.771 7.562 3.061308 28.925578 -2.458615
2012-03-22 08:08:03 51°14.759 2°54.755 7.5385 3.065756 29.005464 -2.458615
2012-03-22 08:08:08 51°14.774 2°54.739 7.4747 3.065756 29.005464 -2.458615
2012-03-22 08:08:12 51°14.786 2°54.726 7.5007 3.069895 29.093005 -2.458615
2012-03-22 08:08:18 51°14.803 2°54.708 7.4955 3.072895 29.160448 -2.458615
2012-03-22 08:08:23 51°14.818 2°54.691 7.4615 3.074136 29.201907 -2.458615
2012-03-22 08:08:28 51°14.832 2°54.675 7.4805 3.078585 29.279468 -2.458615
2012-03-22 08:08:32 51°14.844 2°54.663 7.5192 3.080964 29.318399 -2.458615
2012-03-22 08:08:38 51°14.862 2°54.645 7.5199 3.080964 29.318399 -2.458615
2012-03-22 08:08:43 51°14.877 2°54.63 7.4351 3.08324 29.359384 -2.458615
2012-03-22 08:08:48 51°14.893 2°54.616 7.4693 3.084999 29.403523 -2.458615
2012-03-22 08:08:53 51°14.908 2°54.602 7.4406 3.086137 29.428738 -2.458615
2012-03-22 08:08:58 51°14.923 2°54.587 7.4313 3.086757 29.447743 -2.458615
2012-03-22 08:09:03 51°14.938 2°54.573 7.4324 3.08893 29.475331 -2.458615
2012-03-22 08:09:08 51°14.953 2°54.558 7.4833 3.08893 29.475331 -2.458615
2012-03-22 08:09:13 51°14.968 2°54.544 7.429 3.091309 29.501208 -2.458615
2012-03-22 08:09:18 51°14.983 2°54.531 7.3885 3.093068 29.526012 -2.458615
2012-03-22 08:09:23 51°14.999 2°54.518 7.4235 3.094102 29.545533 -2.458615
2012-03-22 08:09:28 51°15.014 2°54.506 7.4425 3.095344 29.575086 -2.458615
2012-03-22 08:09:33 51°15.03 2°54.493 7.4156 3.095447 29.588726 -2.458615
2012-03-22 08:09:38 51°15.046 2°54.481 7.4128 3.095447 29.588726 -2.458615
2012-03-22 08:09:43 51°15.061 2°54.469 7.379 3.095861 29.595452 -2.458615
2012-03-22 08:09:48 51°15.077 2°54.458 7.4506 3.095447 29.592649 -2.458615
2012-03-22 08:09:53 51°15.093 2°54.448 7.3835 3.09493 29.604455 -2.458615
2012-03-22 08:09:58 51°15.109 2°54.437 7.4083 3.094827 29.613577 -2.458615
2012-03-22 08:10:03 51°15.124 2°54.427 7.4439 3.09462 29.609031 -2.458615
2012-03-22 08:10:08 51°15.14 2°54.417 7.3877 3.09462 29.609031 -2.458615
2012-03-22 08:10:12 51°15.153 2°54.409 7.3632 3.094413 29.612345 -2.458615
2012-03-22 08:10:18 51°15.172 2°54.399 7.3874 3.094517 29.625237 -2.458615
2012-03-22 08:10:23 51°15.188 2°54.391 7.3788 3.093689 29.618053 -2.458615
2012-03-22 08:10:28 51°15.204 2°54.384 7.3782 3.093276 29.615247 -2.458615
2012-03-22 08:10:32 51°15.217 2°54.379 7.3804 3.093276 29.622329 -2.458615
2012-03-22 08:10:38 51°15.237 2°54.372 7.3959 3.093276 29.622329 -2.458615
2012-03-22 08:10:43 51°15.253 2°54.366 7.3472 3.093276 29.621542 -2.458615
2012-03-22 08:10:48 51°15.269 2°54.36 7.3203 3.094414 29.640676 -2.458615
2012-03-22 08:10:52 51°15.282 2°54.355 7.3129 3.094517 29.646499 -2.458615
2012-03-22 08:10:58 51°15.301 2°54.349 7.3481 3.09431 29.648248 -2.458615
2012-03-22 08:11:03 51°15.317 2°54.343 7.3134 3.094 29.651268 -2.458615
2012-03-22 08:11:08 51°15.334 2°54.337 7.3255 3.094 29.651268 -2.458615
2012-03-22 08:11:13 51°15.35 2°54.332 7.3156 3.094 29.656789 -2.458615
2012-03-22 08:11:18 51°15.366 2°54.327 7.3241 3.093069 29.6556 -2.458615
2012-03-22 08:11:23 51°15.383 2°54.322 7.2793 3.092552 29.664326 -2.458615
2012-03-22 08:11:28 51°15.399 2°54.317 7.3192 3.092139 29.670996 -2.458615
2012-03-22 08:11:33 51°15.416 2°54.312 7.3199 3.091208 29.668232 -2.458615
2012-03-22 08:11:38 51°15.432 2°54.306 7.2971 3.091208 29.668232 -2.458615
2012-03-22 08:11:43 51°15.448 2°54.301 7.2956 3.09069 29.669858 -2.458615
2012-03-22 08:11:48 51°15.465 2°54.296 7.2685 3.090691 29.673812 -2.458615
2012-03-22 08:11:53 51°15.481 2°54.291 7.2956 3.090897 29.679171 -2.458615
2012-03-22 08:11:58 51°15.498 2°54.286 7.2774 3.092035 29.699165 -2.458615
2012-03-22 08:12:03 51°15.514 2°54.281 7.2657 3.091001 29.693723 -2.458615
2012-03-22 08:12:08 51°15.531 2°54.276 7.283 3.091001 29.693723 -2.458615
2012-03-22 08:12:13 51°15.547 2°54.271 7.2752 3.08976 29.6845 -2.458615
2012-03-22 08:12:18 51°15.564 2°54.267 7.2485 3.088725 29.680638 -2.458615
2012-03-22 08:12:23 51°15.58 2°54.263 7.2548 3.087795 29.678667 -2.458615
2012-03-22 08:12:28 51°15.597 2°54.259 7.2619 3.087381 29.677438 -2.458615
2012-03-22 08:12:32 51°15.61 2°54.257 7.2739 3.085933 29.664426 -2.458615
2012-03-22 08:12:38 51°15.63 2°54.253 7.2641 3.085933 29.664426 -2.458615
2012-03-22 08:12:43 51°15.647 2°54.25 7.2542 3.087484 29.684083 -2.458615
2012-03-22 08:12:48 51°15.663 2°54.249 7.2609 3.086967 29.680963 -2.458615
2012-03-22 08:12:52 51°15.676 2°54.247 7.228 3.08645 29.684183 -2.458615
2012-03-22 08:12:58 51°15.696 2°54.246 7.2237 3.085416 29.679527 -2.458615
2012-03-22 08:13:03 51°15.713 2°54.244 7.2577 3.085519 29.68142 -2.458615
2012-03-22 08:13:08 51°15.729 2°54.242 7.2603 3.085519 29.68142 -2.458615
2012-03-22 08:13:12 51°15.742 2°54.24 7.2212 3.084898 29.677199 -2.458615
2012-03-22 08:13:18 51°15.762 2°54.237 7.2134 3.084174 29.673462 -2.458615
2012-03-22 08:13:23 51°15.779 2°54.234 7.2289 3.083864 29.674126 -2.458615
2012-03-22 08:13:28 51°15.795 2°54.231 7.2051 3.083657 29.679063 -2.458615
2012-03-22 08:13:33 51°15.812 2°54.228 7.2043 3.08314 29.679908 -2.458615
2012-03-22 08:13:38 51°15.828 2°54.226 7.2176 3.08314 29.679908 -2.458615
2012-03-22 08:13:43 51°15.844 2°54.223 7.1967 3.087278 29.723939 -2.458615
2012-03-22 08:13:48 51°15.861 2°54.22 7.1982 3.086968 29.722226 -2.458615
2012-03-22 08:13:53 51°15.877 2°54.217 7.2108 3.086244 29.722466 -2.458615
2012-03-22 08:13:58 51°15.894 2°54.214 7.1866 3.086451 29.727054 -2.458615
2012-03-22 08:14:03 51°15.91 2°54.209 7.1969 3.086657 29.734824 -2.458615
2012-03-22 08:14:08 51°15.926 2°54.205 7.2034 3.086657 29.734824 -2.458615
2012-03-22 08:14:13 51°15.943 2°54.2 7.1974 3.08614 29.733294 -2.458615
2012-03-22 08:14:18 51°15.959 2°54.195 7.1539 3.085934 29.741436 -2.458615
2012-03-22 08:14:23 51°15.975 2°54.189 7.181 3.08521 29.740886 -2.458615
2012-03-22 08:14:28 51°15.992 2°54.184 7.1687 3.084796 29.737274 -2.458615
2012-03-22 08:14:33 51°16.008 2°54.178 7.1561 3.085416 29.74787 -2.458615
2012-03-22 08:14:38 51°16.023 2°54.174 7.1597 3.085416 29.74787 -2.458615
2012-03-22 08:14:43 51°16.038 2°54.17 7.1601 3.085416 29.751057 -2.458615
2012-03-22 08:14:48 51°16.052 2°54.167 7.1583 3.085106 29.749342 -2.458615
2012-03-22 08:14:52 51°16.062 2°54.165 7.1359 3.084175 29.744996 -2.458615
2012-03-22 08:14:58 51°16.077 2°54.162 7.1686 3.083968 29.747572 -2.458615
2012-03-22 08:15:03 51°16.089 2°54.161 7.1682 3.083762 29.750149 -2.458615
2012-03-22 08:15:08 51°16.1 2°54.159 7.1267 3.083762 29.750149 -2.458615
2012-03-22 08:15:12 51°16.109 2°54.158 7.1565 3.083141 29.747516 -2.458615
2012-03-22 08:15:18 51°16.121 2°54.156 7.1567 3.082831 29.748991 -2.458615
2012-03-22 08:15:23 51°16.13 2°54.155 7.1323 3.083245 29.756595 -2.458615
2012-03-22 08:15:28 51°16.139 2°54.153 7.1491 3.082624 29.754761 -2.458615
2012-03-22 08:15:32 51°16.146 2°54.152 7.1298 3.082831 29.755372 -2.458615
2012-03-22 08:15:38 51°16.156 2°54.15 7.1253 3.082831 29.755372 -2.458615
2012-03-22 08:15:43 51°16.164 2°54.149 7.131 3.082521 29.754455 -2.458615
2012-03-22 08:15:48 51°16.171 2°54.147 7.1304 3.082314 29.755439 -2.458615
2012-03-22 08:15:53 51°16.179 2°54.145 7.1275 3.083245 29.766172 -2.458615
2012-03-22 08:15:58 51°16.186 2°54.142 7.1331 3.082624 29.765137 -2.458615
2012-03-22 08:16:03 51°16.193 2°54.14 7.1175 3.082417 29.765324 -2.458615
2012-03-22 08:16:08 51°16.2 2°54.136 7.1081 3.082417 29.765324 -2.458615
2012-03-22 08:16:13 51°16.207 2°54.133 7.1215 3.082004 29.766498 -2.458615
2012-03-22 08:16:18 51°16.213 2°54.13 7.1044 3.081693 29.765581 -2.458615
2012-03-22 08:16:23 51°16.219 2°54.127 7.1199 3.081279 29.762761 -2.458615
2012-03-22 08:16:28 51°16.226 2°54.125 7.1116 3.081073 29.764546 -2.458615
2012-03-22 08:16:32 51°16.23 2°54.123 7.1077 3.080452 29.761114 -2.458615
2012-03-22 08:16:38 51°16.237 2°54.122 7.1079 3.080452 29.761114 -2.458615
2012-03-22 08:16:43 51°16.242 2°54.121 7.1028 3.080038 29.759092 -2.458615
2012-03-22 08:16:48 51°16.247 2°54.122 7.1149 3.0789 29.750135 -2.458615
2012-03-22 08:16:52 51°16.251 2°54.122 7.0941 3.07859 29.750016 -2.458615
2012-03-22 08:16:58 51°16.256 2°54.124 7.0928 3.077866 29.74388 -2.458615
2012-03-22 08:17:03 51°16.26 2°54.126 7.101 3.077452 29.743454 -2.458615
2012-03-22 08:17:08 51°16.263 2°54.129 7.1012 3.077452 29.743454 -2.458615
2012-03-22 08:17:12 51°16.265 2°54.132 7.1004 3.076521 29.734307 -2.458615
2012-03-22 08:17:18 51°16.268 2°54.136 7.0975 3.076211 29.733388 -2.458615
2012-03-22 08:17:23 51°16.27 2°54.14 7.0797 3.076315 29.735292 -2.458615
2012-03-22 08:17:28 51°16.271 2°54.144 7.0907 3.075591 29.730751 -2.458615
2012-03-22 08:17:32 51°16.272 2°54.148 7.1092 3.075487 29.732042 -2.458615
2012-03-22 08:17:38 51°16.273 2°54.153 7.0978 3.075487 29.732042 -2.458615
2012-03-22 08:17:43 51°16.274 2°54.159 7.0906 3.07497 29.725717 -2.458615
2012-03-22 08:17:48 51°16.274 2°54.164 7.0929 3.074142 29.718472 -2.458615
2012-03-22 08:17:53 51°16.275 2°54.171 7.0915 3.073625 29.713745 -2.458615
2012-03-22 08:17:58 51°16.275 2°54.177 7.0913 3.072901 29.712395 -2.458615
2012-03-22 08:18:03 51°16.275 2°54.185 7.0751 3.072384 29.708465 -2.458615
2012-03-22 08:18:08 51°16.275 2°54.192 7.0762 3.072384 29.708465 -2.458615
2012-03-22 08:18:13 51°16.275 2°54.201 7.0881 3.072281 29.707359 -2.458615
2012-03-22 08:18:18 51°16.276 2°54.209 7.0943 3.072074 29.705947 -2.458615
2012-03-22 08:18:23 51°16.276 2°54.219 7.0753 3.07166 29.703122 -2.458615
2012-03-22 08:18:28 51°16.276 2°54.228 7.0811 3.071453 29.700911 -2.458615
2012-03-22 08:18:33 51°16.277 2°54.238 7.0629 3.071039 29.699682 -2.458615
2012-03-22 08:18:38 51°16.277 2°54.248 7.0721 3.071039 29.699682 -2.458615
2012-03-22 08:18:43 51°16.277 2°54.258 7.0712 3.070626 29.699252 -2.458615
2012-03-22 08:18:48 51°16.277 2°54.268 7.0795 3.070108 29.69532 -2.458615
2012-03-22 08:18:53 51°16.278 2°54.278 7.0786 3.070108 29.692925 -2.458615
2012-03-22 08:18:58 51°16.278 2°54.289 7.0641 3.069798 29.693599 -2.458615
2012-03-22 08:19:03 51°16.278 2°54.3 7.0561 3.069384 29.690773 -2.458615
2012-03-22 08:19:08 51°16.278 2°54.31 7.0734 3.069384 29.690773 -2.458615
2012-03-22 08:19:12 51°16.278 2°54.317 7.0616 3.069074 29.691448 -2.458615
2012-03-22 08:19:18 51°16.277 2°54.326 7.0495 3.06835 29.685303 -2.458615
2012-03-22 08:19:23 51°16.277 2°54.333 7.0549 3.068247 29.684995 -2.458615
2012-03-22 08:19:28 51°16.275 2°54.34 7.0687 3.067936 29.682476 -2.458615
2012-03-22 08:19:32 51°16.274 2°54.344 7.071 3.067419 29.680937 -2.458615
2012-03-22 08:19:38 51°16.272 2°54.349 7.0517 3.067419 29.680937 -2.458615
2012-03-22 08:19:43 51°16.269 2°54.353 7.0563 3.067419 29.682535 -2.458615
2012-03-22 08:19:48 51°16.267 2°54.356 7.073 3.067109 29.680014 -2.458615
2012-03-22 08:19:52 51°16.265 2°54.357 7.0542 3.066178 29.672454 -2.458615
2012-03-22 08:19:58 51°16.262 2°54.359 7.0711 3.065764 29.670424 -2.458615
2012-03-22 08:20:03 51°16.26 2°54.36 7.0677 3.065144 29.661391 -2.458615
2012-03-22 08:20:08 51°16.257 2°54.36 7.0657 3.065144 29.661391 -2.458615
2012-03-22 08:20:13 51°16.254 2°54.36 7.0775 3.06442 29.654446 -2.458615
2012-03-22 08:20:18 51°16.252 2°54.359 7.0645 3.064833 29.658871 -2.458615
2012-03-22 08:20:23 51°16.25 2°54.357 7.0559 3.064937 29.661573 -2.458615
2012-03-22 08:20:28 51°16.248 2°54.356 7.055 3.064523 29.655552 -2.458615
2012-03-22 08:20:33 51°16.246 2°54.353 7.0694 3.064833 29.657275 -2.458615
2012-03-22 08:20:38 51°16.244 2°54.351 7.0552 3.064833 29.657275 -2.458615
2012-03-22 08:20:43 51°16.243 2°54.347 7.0501 3.065351 29.662007 -2.458615
2012-03-22 08:20:48 51°16.242 2°54.344 7.0583 3.066695 29.67559 -2.458615
2012-03-22 08:20:53 51°16.241 2°54.341 7.0542 3.066695 29.676388 -2.458615
2012-03-22 08:20:58 51°16.239 2°54.338 7.0539 3.066799 29.682286 -2.458615
2012-03-22 08:21:03 51°16.238 2°54.335 7.051 3.066488 29.679765 -2.458615
2012-03-22 08:21:08 51°16.236 2°54.332 7.0524 3.066488 29.679765 -2.458615
2012-03-22 08:21:13 51°16.235 2°54.329 7.0685 3.065971 29.675032 -2.458615
2012-03-22 08:21:18 51°16.233 2°54.327 7.0472 3.065661 29.67331 -2.458615
2012-03-22 08:21:23 51°16.231 2°54.325 7.0504 3.064937 29.665565 -2.458615
2012-03-22 08:21:28 51°16.23 2°54.322 7.0558 3.064833 29.665257 -2.458615
2012-03-22 08:21:32 51°16.228 2°54.32 7.0527 3.06442 29.661629 -2.458615
2012-03-22 08:21:38 51°16.227 2°54.316 7.0446 3.06442 29.661629 -2.458615
2012-03-22 08:21:43 51°16.225 2°54.313 7.0535 3.063592 29.655172 -2.458615
2012-03-22 08:21:48 51°16.224 2°54.31 7.0454 3.064523 29.664332 -2.458615
2012-03-22 08:21:52 51°16.222 2°54.308 7.0524 3.06473 29.667344 -2.458615
2012-03-22 08:21:58 51°16.22 2°54.304 7.0421 3.064523 29.668325 -2.458615
2012-03-22 08:22:03 51°16.219 2°54.301 7.0436 3.064109 29.6631 -2.458615
2012-03-22 08:22:08 51°16.217 2°54.298 7.0522 3.064109 29.6631 -2.458615
2012-03-22 08:22:13 51°16.216 2°54.294 7.0457 3.063903 29.661685 -2.458615
2012-03-22 08:22:18 51°16.215 2°54.291 7.0498 3.063592 29.659164 -2.458615
2012-03-22 08:22:23 51°16.213 2°54.288 7.0444 3.063179 29.656334 -2.458615
2012-03-22 08:22:28 51°16.211 2°54.285 7.0539 3.062661 29.651599 -2.458615
2012-03-22 08:22:33 51°16.21 2°54.282 7.045 3.062661 29.653994 -2.458615
2012-03-22 08:22:38 51°16.208 2°54.279 7.0549 3.062661 29.653994 -2.458615
2012-03-22 08:22:43 51°16.207 2°54.276 7.0427 3.062351 29.649875 -2.458615
2012-03-22 08:22:48 51°16.205 2°54.273 7.042 3.062144 29.64846 -2.458615
2012-03-22 08:22:53 51°16.204 2°54.27 7.0477 3.061627 29.642926 -2.458615
2012-03-22 08:22:58 51°16.202 2°54.267 7.0464 3.062351 29.650674 -2.458615
2012-03-22 08:23:03 51°16.2 2°54.264 7.0437 3.062041 29.646555 -2.458615
2012-03-22 08:23:08 51°16.199 2°54.261 7.0439 3.062041 29.646555 -2.458615
2012-03-22 08:23:12 51°16.198 2°54.258 7.0401 3.062351 29.649875 -2.458615
2012-03-22 08:23:18 51°16.196 2°54.254 7.0426 3.062558 29.652089 -2.458615
2012-03-22 08:23:23 51°16.194 2°54.251 7.0439 3.061834 29.645938 -2.458615
2012-03-22 08:23:28 51°16.193 2°54.248 7.0425 3.061937 29.647843 -2.458615
2012-03-22 08:23:33 51°16.191 2°54.245 7.0458 3.06173 29.645629 -2.458615
2012-03-22 08:23:38 51°16.189 2°54.242 7.0389 3.06173 29.645629 -2.458615
2012-03-22 08:23:43 51°16.188 2°54.239 7.0408 3.06142 29.643905 -2.458615
2012-03-22 08:23:48 51°16.186 2°54.235 7.0412 3.060903 29.639169 -2.458615
2012-03-22 08:23:52 51°16.185 2°54.232 7.0394 3.060386 29.633635 -2.458615
2012-03-22 08:23:58 51°16.184 2°54.228 7.0491 3.060489 29.63554 -2.458615
2012-03-22 08:24:03 51°16.182 2°54.225 7.0471 3.061627 29.646918 -2.458615
2012-03-22 08:24:08 51°16.181 2°54.222 7.0371 3.061627 29.646918 -2.458615
2012-03-22 08:24:12 51°16.179 2°54.219 7.0377 3.06142 29.646301 -2.458615
2012-03-22 08:24:18 51°16.177 2°54.215 7.041 3.06173 29.649621 -2.458615
2012-03-22 08:24:23 51°16.176 2°54.212 7.0437 3.059351 29.624961 -2.458615
2012-03-22 08:24:28 51°16.174 2°54.209 7.0384 3.059041 29.62164 -2.458615
2012-03-22 08:24:33 51°16.173 2°54.206 7.0384 3.059558 29.626376 -2.458615
2012-03-22 08:24:38 51°16.171 2°54.203 7.0357 3.059558 29.626376 -2.458615
2012-03-22 08:24:43 51°16.169 2°54.199 7.0361 3.059351 29.624961 -2.458615
2012-03-22 08:24:48 51°16.168 2°54.196 7.0442 3.059972 29.633198 -2.458615
2012-03-22 08:24:53 51°16.166 2°54.193 7.0406 3.064834 29.685231 -2.458615
2012-03-22 08:24:58 51°16.165 2°54.19 7.0405 3.064834 29.686031 -2.458615
2012-03-22 08:25:03 51°16.163 2°54.186 7.0358 3.063179 29.668316 -2.458615
2012-03-22 08:25:08 51°16.161 2°54.183 7.0355 3.063179 29.668316 -2.458615
2012-03-22 08:25:12 51°16.16 2°54.181 7.0404 3.06111 29.647771 -2.458615
2012-03-22 08:25:18 51°16.158 2°54.177 7.0384 3.058214 29.617572 -2.458615
2012-03-22 08:25:23 51°16.157 2°54.174 7.0329 3.055317 29.584985 -2.458615
2012-03-22 08:25:28 51°16.155 2°54.17 7.0321 3.058524 29.620095 -2.458615
2012-03-22 08:25:32 51°16.154 2°54.168 7.0354 3.061524 29.652199 -2.458615
2012-03-22 08:25:38 51°16.152 2°54.164 7.0385 3.061524 29.652199 -2.458615
2012-03-22 08:25:43 51°16.15 2°54.16 7.0356 3.062144 29.659641 -2.458615
2012-03-22 08:25:48 51°16.149 2°54.157 7.0294 3.062972 29.669298 -2.458615
2012-03-22 08:25:53 51°16.147 2°54.153 7.0333 3.062868 29.66899 -2.458615
2012-03-22 08:25:58 51°16.146 2°54.15 7.0368 3.062558 29.666467 -2.458615
2012-03-22 08:26:03 51°16.144 2°54.147 7.0302 3.063179 29.673111 -2.458615
2012-03-22 08:26:08 51°16.143 2°54.143 7.0286 3.063179 29.673111 -2.458615
2012-03-22 08:26:12 51°16.141 2°54.141 7.0275 3.062765 29.669481 -2.458615
2012-03-22 08:26:18 51°16.14 2°54.137 7.0288 3.061627 29.657301 -2.458615
2012-03-22 08:26:23 51°16.138 2°54.133 7.0271 3.063592 29.67914 -2.458615
2012-03-22 08:26:28 51°16.137 2°54.13 7.0265 3.063489 29.678832 -2.458615
2012-03-22 08:26:32 51°16.135 2°54.127 7.028 3.063903 29.683262 -2.458615
2012-03-22 08:26:38 51°16.134 2°54.123 7.0325 3.063903 29.683262 -2.458615
2012-03-22 08:26:43 51°16.132 2°54.12 7.0287 3.063592 29.680739 -2.458615
2012-03-22 08:26:48 51°16.131 2°54.116 7.0287 3.064006 29.686769 -2.458615
2012-03-22 08:26:53 51°16.129 2°54.113 7.0303 3.063799 29.685353 -2.458615
2012-03-22 08:26:58 51°16.128 2°54.11 7.0323 3.063799 29.685353 -2.458615
2012-03-22 08:27:03 51°16.126 2°54.106 7.0261 3.063696 29.685046 -2.458615
2012-03-22 08:27:08 51°16.125 2°54.103 7.0284 3.063696 29.685046 -2.458615
2012-03-22 08:27:13 51°16.123 2°54.099 7.0251 3.063593 29.683938 -2.458615
2012-03-22 08:27:18 51°16.121 2°54.096 7.028 3.063489 29.682031 -2.458615
2012-03-22 08:27:23 51°16.12 2°54.093 7.0249 3.063489 29.682031 -2.458615
2012-03-22 08:27:28 51°16.118 2°54.089 7.0235 3.063696 29.684246 -2.458615
2012-03-22 08:27:32 51°16.117 2°54.087 7.0233 3.063696 29.685046 -2.458615
2012-03-22 08:27:38 51°16.115 2°54.083 7.0235 3.063696 29.685046 -2.458615
2012-03-22 08:27:43 51°16.114 2°54.079 7.0291 3.063489 29.68363 -2.458615
2012-03-22 08:27:48 51°16.112 2°54.076 7.0269 3.063386 29.683323 -2.458615
2012-03-22 08:27:53 51°16.111 2°54.072 7.0183 3.063386 29.683323 -2.458615
2012-03-22 08:27:58 51°16.109 2°54.069 7.0247 3.063799 29.688553 -2.458615
2012-03-22 08:28:03 51°16.108 2°54.065 7.0251 3.063696 29.689046 -2.458615
2012-03-22 08:28:08 51°16.106 2°54.061 7.0217 3.063696 29.689046 -2.458615
2012-03-22 08:28:12 51°16.105 2°54.057 7.0158 3.062662 29.678768 -2.458615
2012-03-22 08:28:18 51°16.103 2°54.052 7.0233 3.061834 29.669107 -2.458615
2012-03-22 08:28:23 51°16.101 2°54.046 7.0236 3.0608 29.657231 -2.458615
2012-03-22 08:28:28 51°16.099 2°54.041 7.0389 3.062662 29.676369 -2.458615
2012-03-22 08:28:32 51°16.098 2°54.036 7.0378 3.061938 29.668615 -2.458615
2012-03-22 08:28:38 51°16.096 2°54.029 7.0458 3.061938 29.668615 -2.458615
2012-03-22 08:28:43 51°16.095 2°54.023 7.0437 3.061317 29.658773 -2.458615
2012-03-22 08:28:48 51°16.094 2°54.017 7.0405 3.0608 29.650839 -2.458615
2012-03-22 08:28:52 51°16.093 2°54.011 7.044 3.059145 29.630727 -2.458615
2012-03-22 08:28:58 51°16.092 2°54.003 7.0295 3.061937 29.658225 -2.458615
2012-03-22 08:29:03 51°16.092 2°53.995 7.0432 3.062351 29.65866 -2.458615
2012-03-22 08:29:08 51°16.091 2°53.987 7.0386 3.062351 29.65866 -2.458615
2012-03-22 08:29:13 51°16.092 2°53.98 7.0397 3.062144 29.650855 -2.458615
2012-03-22 08:29:18 51°16.092 2°53.972 7.0435 3.063385 29.661742 -2.458615
2012-03-22 08:29:23 51°16.093 2°53.965 7.0476 3.063282 29.658239 -2.458615
2012-03-22 08:29:28 51°16.095 2°53.958 7.0449 3.063385 29.657749 -2.458615
2012-03-22 08:29:33 51°16.096 2°53.951 7.0404 3.062868 29.651417 -2.458615
2012-03-22 08:29:38 51°16.098 2°53.945 7.0377 3.062868 29.651417 -2.458615
2012-03-22 08:29:43 51°16.101 2°53.939 7.038 3.064937 29.672752 -2.458615
2012-03-22 08:29:48 51°16.103 2°53.934 7.0372 3.065558 29.678593 -2.458615
2012-03-22 08:29:53 51°16.106 2°53.929 7.0303 3.065661 29.6797 -2.458615
2012-03-22 08:29:58 51°16.11 2°53.924 7.0308 3.064937 29.671155 -2.458615
2012-03-22 08:30:03 51°16.114 2°53.918 7.0254 3.063489 29.654864 -2.458615
2012-03-22 08:30:08 51°16.12 2°53.913 7.0281 3.063489 29.654864 -2.458615
2012-03-22 08:30:13 51°16.126 2°53.906 7.0315 3.065144 29.673368 -2.458615
2012-03-22 08:30:18 51°16.133 2°53.899 7.0299 3.06504 29.67306 -2.458615
2012-03-22 08:30:23 51°16.14 2°53.892 7.0326 3.065144 29.674965 -2.458615
2012-03-22 08:30:28 51°16.149 2°53.884 7.0322 3.064834 29.674042 -2.458615
2012-03-22 08:30:32 51°16.155 2°53.878 7.027 3.06473 29.676131 -2.458615
2012-03-22 08:30:38 51°16.166 2°53.868 7.0232 3.06473 29.676131 -2.458615
2012-03-22 08:30:43 51°16.175 2°53.858 7.0208 3.06473 29.67693 -2.458615
2012-03-22 08:30:48 51°16.184 2°53.848 7.0223 3.064627 29.677421 -2.458615
2012-03-22 08:30:52 51°16.191 2°53.839 7.0215 3.064523 29.676314 -2.458615
2012-03-22 08:30:58 51°16.202 2°53.826 7.0137 3.06442 29.674408 -2.458615
2012-03-22 08:31:03 51°16.212 2°53.814 7.0117 3.064523 29.676314 -2.458615
2012-03-22 08:31:08 51°16.221 2°53.802 7.009 3.064523 29.676314 -2.458615
2012-03-22 08:31:12 51°16.228 2°53.793 7.0036 3.064213 29.673793 -2.458615
2012-03-22 08:31:18 51°16.24 2°53.778 7.0012 3.06411 29.675083 -2.458615
2012-03-22 08:31:23 51°16.25 2°53.765 7.0043 3.063799 29.67336 -2.458615
2012-03-22 08:31:28 51°16.26 2°53.752 6.996 3.06411 29.67908 -2.458615
2012-03-22 08:31:33 51°16.27 2°53.738 6.9962 3.064006 29.680371 -2.458615
2012-03-22 08:31:38 51°16.281 2°53.724 6.9899 3.064006 29.680371 -2.458615
2012-03-22 08:31:43 51°16.291 2°53.71 6.9971 3.063799 29.680555 -2.458615
2012-03-22 08:31:48 51°16.302 2°53.694 6.9913 3.063696 29.682646 -2.458615
2012-03-22 08:31:53 51°16.312 2°53.678 6.9938 3.063799 29.686953 -2.458615
2012-03-22 08:31:58 51°16.323 2°53.662 6.9959 3.064213 29.692184 -2.458615
2012-03-22 08:32:03 51°16.334 2°53.646 6.9998 3.064213 29.693784 -2.458615
2012-03-22 08:32:08 51°16.345 2°53.63 7.0069 3.064213 29.693784 -2.458615
2012-03-22 08:32:13 51°16.356 2°53.613 7.0072 3.064524 29.700309 -2.458615
2012-03-22 08:32:18 51°16.367 2°53.597 7.0064 3.064937 29.707143 -2.458615
2012-03-22 08:32:23 51°16.378 2°53.58 7.0108 3.065041 29.710654 -2.458615
2012-03-22 08:32:28 51°16.389 2°53.563 7.018 3.065972 29.721428 -2.458615
2012-03-22 08:32:32 51°16.398 2°53.55 7.0214 3.066489 29.726168 -2.458615
2012-03-22 08:32:38 51°16.411 2°53.529 7.0281 3.066489 29.726168 -2.458615
2012-03-22 08:32:43 51°16.422 2°53.512 7.0333 3.069178 29.753378 -2.458615
2012-03-22 08:32:48 51°16.433 2°53.495 7.0362 3.071144 29.772029 -2.458615
2012-03-22 08:32:52 51°16.442 2°53.482 7.0335 3.073006 29.790373 -2.458615
2012-03-22 08:32:58 51°16.455 2°53.461 7.0422 3.074454 29.802677 -2.458615
2012-03-22 08:33:03 51°16.466 2°53.445 7.0501 3.076005 29.816088 -2.458615
2012-03-22 08:33:08 51°16.478 2°53.428 7.0466 3.076005 29.816088 -2.458615
2012-03-22 08:33:12 51°16.487 2°53.415 7.0412 3.077557 29.828693 -2.458615
2012-03-22 08:33:18 51°16.5 2°53.395 7.0453 3.079212 29.842405 -2.458615
2012-03-22 08:33:23 51°16.512 2°53.379 7.0426 3.08066 29.854702 -2.458615
2012-03-22 08:33:28 51°16.523 2°53.362 7.0434 3.082625 29.873342 -2.458615
2012-03-22 08:33:32 51°16.532 2°53.349 7.0381 3.084177 29.886745 -2.458615
2012-03-22 08:33:38 51°16.545 2°53.33 7.0327 3.084177 29.886745 -2.458615
2012-03-22 08:33:43 51°16.556 2°53.314 7.0143 3.086659 29.908507 -2.458615
2012-03-22 08:33:48 51°16.568 2°53.298 7.0099 3.088935 29.930467 -2.458615
2012-03-22 08:33:53 51°16.579 2°53.282 6.9997 3.09059 29.946584 -2.458615
2012-03-22 08:33:58 51°16.591 2°53.267 6.9927 3.091832 29.959075 -2.458615
2012-03-22 08:34:03 51°16.602 2°53.252 6.9907 3.092556 29.966832 -2.458615
2012-03-22 08:34:08 51°16.614 2°53.236 6.9921 3.092556 29.966832 -2.458615
2012-03-22 08:34:13 51°16.626 2°53.221 6.983 3.092452 29.967337 -2.458615
2012-03-22 08:34:18 51°16.637 2°53.205 6.9911 3.090901 29.953941 -2.458615
2012-03-22 08:34:23 51°16.649 2°53.189 6.9882 3.088108 29.931273 -2.458615
2012-03-22 08:34:28 51°16.66 2°53.175 6.9786 3.085625 29.911925 -2.458615
2012-03-22 08:34:33 51°16.672 2°53.16 6.9685 3.083867 29.89872 -2.458615
2012-03-22 08:34:38 51°16.685 2°53.147 6.9706 3.083867 29.89872 -2.458615
2012-03-22 08:34:43 51°16.697 2°53.133 6.9663 3.082522 29.890751 -2.458615
2012-03-22 08:34:48 51°16.71 2°53.12 6.9724 3.081177 29.88117 -2.458615
2012-03-22 08:34:53 51°16.723 2°53.106 6.9712 3.08035 29.874715 -2.458615
2012-03-22 08:34:58 51°16.737 2°53.093 6.9784 3.078591 29.858279 -2.458615
2012-03-22 08:35:03 51°16.75 2°53.079 6.9791 3.078281 29.858977 -2.458615
2012-03-22 08:35:08 51°16.764 2°53.065 6.9834 3.078281 29.858977 -2.458615
2012-03-22 08:35:12 51°16.775 2°53.053 6.9823 3.076833 29.847475 -2.458615
2012-03-22 08:35:18 51°16.791 2°53.035 6.9787 3.075799 29.838798 -2.458615
2012-03-22 08:35:23 51°16.804 2°53.018 6.9881 3.074971 29.832339 -2.458615
2012-03-22 08:35:28 51°16.817 2°53.002 6.9895 3.074557 29.830316 -2.458615
2012-03-22 08:35:32 51°16.828 2°52.989 6.9893 3.075799 29.843627 -2.458615
2012-03-22 08:35:38 51°16.843 2°52.969 6.9922 3.075799 29.843627 -2.458615
2012-03-22 08:35:43 51°16.856 2°52.952 6.9958 3.076006 29.845041 -2.458615
2012-03-22 08:35:48 51°16.869 2°52.935 6.9893 3.076523 29.848977 -2.458615
2012-03-22 08:35:53 51°16.881 2°52.918 6.9923 3.07704 29.853719 -2.458615
2012-03-22 08:35:58 51°16.893 2°52.9 6.9847 3.077557 29.85846 -2.458615
2012-03-22 08:36:03 51°16.906 2°52.883 6.9746 3.078695 29.869051 -2.458615
2012-03-22 08:36:08 51°16.919 2°52.866 6.976 3.078695 29.869051 -2.458615
2012-03-22 08:36:13 51°16.932 2°52.848 6.9785 3.079522 29.875509 -2.458615
2012-03-22 08:36:18 51°16.945 2°52.831 6.97 3.080143 29.880553 -2.458615
2012-03-22 08:36:23 51°16.958 2°52.814 6.9721 3.080971 29.888621 -2.458615
2012-03-22 08:36:28 51°16.971 2°52.797 6.977 3.081281 29.891948 -2.458615
2012-03-22 08:36:33 51°16.984 2°52.779 6.9641 3.081488 29.894973 -2.458615
2012-03-22 08:36:38 51°16.997 2°52.761 6.9673 3.081488 29.894973 -2.458615
2012-03-22 08:36:43 51°17.01 2°52.744 6.9669 3.081281 29.895979 -2.458615
2012-03-22 08:36:48 51°17.024 2°52.727 6.9713 3.080867 29.89396 -2.458615
2012-03-22 08:36:53 51°17.037 2°52.71 6.9609 3.080454 29.891941 -2.458615
2012-03-22 08:36:58 51°17.05 2°52.692 6.9552 3.079729 29.885787 -2.458615
2012-03-22 08:37:03 51°17.062 2°52.672 6.9584 3.079212 29.882658 -2.458615
2012-03-22 08:37:08 51°17.075 2°52.653 6.9567 3.079212 29.882658 -2.458615
2012-03-22 08:37:12 51°17.085 2°52.638 6.952 3.078385 29.875393 -2.458615
2012-03-22 08:37:18 51°17.099 2°52.615 6.9613 3.077971 29.872566 -2.458615
2012-03-22 08:37:23 51°17.111 2°52.595 6.9604 3.07735 29.869132 -2.458615
2012-03-22 08:37:28 51°17.123 2°52.575 6.9619 3.077144 29.867718 -2.458615
2012-03-22 08:37:32 51°17.132 2°52.56 6.9597 3.076833 29.868419 -2.458615
2012-03-22 08:37:38 51°17.147 2°52.537 6.9529 3.076833 29.868419 -2.458615
2012-03-22 08:37:43 51°17.159 2°52.518 6.9539 3.076626 29.867006 -2.458615
2012-03-22 08:37:48 51°17.171 2°52.499 6.9494 3.076626 29.868618 -2.458615
2012-03-22 08:37:52 51°17.181 2°52.484 6.9532 3.07642 29.86801 -2.458615
2012-03-22 08:37:58 51°17.196 2°52.461 6.9532 3.076213 29.864984 -2.458615
2012-03-22 08:38:03 51°17.209 2°52.443 6.9441 3.076213 29.864178 -2.458615
2012-03-22 08:38:08 51°17.221 2°52.424 6.9416 3.076213 29.864178 -2.458615
2012-03-22 08:38:13 51°17.234 2°52.405 6.947 3.076006 29.862764 -2.458615
2012-03-22 08:38:18 51°17.246 2°52.386 6.9457 3.075695 29.861046 -2.458615
2012-03-22 08:38:23 51°17.259 2°52.368 6.9459 3.075385 29.858522 -2.458615
2012-03-22 08:38:28 51°17.271 2°52.349 6.9385 3.075178 29.856302 -2.458615
2012-03-22 08:38:33 51°17.284 2°52.33 6.9361 3.074868 29.85539 -2.458615
2012-03-22 08:38:38 51°17.297 2°52.312 6.9389 3.074868 29.85539 -2.458615
2012-03-22 08:38:43 51°17.31 2°52.293 6.9307 3.074351 29.851451 -2.458615
2012-03-22 08:38:48 51°17.322 2°52.275 6.9408 3.074144 29.850843 -2.458615
2012-03-22 08:38:53 51°17.335 2°52.257 6.9406 3.07373 29.848014 -2.458615
2012-03-22 08:38:58 51°17.348 2°52.239 6.9317 3.073523 29.845793 -2.458615
2012-03-22 08:39:03 51°17.361 2°52.221 6.9323 3.073213 29.843269 -2.458615
2012-03-22 08:39:08 51°17.374 2°52.203 6.9432 3.073213 29.843269 -2.458615
2012-03-22 08:39:13 51°17.388 2°52.185 6.9332 3.072903 29.842355 -2.458615
2012-03-22 08:39:18 51°17.401 2°52.167 6.9357 3.072592 29.840636 -2.458615
2012-03-22 08:39:23 51°17.414 2°52.149 6.9336 3.072386 29.840027 -2.458615
2012-03-22 08:39:28 51°17.427 2°52.133 6.9317 3.072075 29.837502 -2.458615
2012-03-22 08:39:32 51°17.438 2°52.12 6.9342 3.071868 29.835281 -2.458615
2012-03-22 08:39:38 51°17.455 2°52.101 6.9317 3.071868 29.835281 -2.458615
2012-03-22 08:39:43 51°17.469 2°52.085 6.9273 3.071558 29.832756 -2.458615
2012-03-22 08:39:48 51°17.483 2°52.071 6.9351 3.071351 29.830535 -2.458615
2012-03-22 08:39:52 51°17.494 2°52.059 6.9301 3.071248 29.83023 -2.458615
2012-03-22 08:39:58 51°17.511 2°52.042 6.9292 3.071041 29.82801 -2.458615
2012-03-22 08:40:03 51°17.526 2°52.028 6.9369 3.070937 29.828511 -2.458615
2012-03-22 08:40:08 51°17.54 2°52.015 6.9344 3.070937 29.828511 -2.458615
2012-03-22 08:40:12 51°17.552 2°52.004 6.9303 3.070731 29.827901 -2.458615
2012-03-22 08:40:18 51°17.569 2°51.987 6.9327 3.070627 29.825985 -2.458615
2012-03-22 08:40:23 51°17.584 2°51.973 6.9382 3.070524 29.82568 -2.458615
2012-03-22 08:40:28 51°17.598 2°51.96 6.9391 3.070524 29.82568 -2.458615
2012-03-22 08:40:33 51°17.612 2°51.946 6.9398 3.070524 29.826486 -2.458615
2012-03-22 08:40:38 51°17.627 2°51.932 6.9267 3.070524 29.826486 -2.458615
2012-03-22 08:40:43 51°17.641 2°51.917 6.9288 3.070524 29.82568 -2.458615
2012-03-22 08:40:48 51°17.655 2°51.903 6.934 3.070627 29.825985 -2.458615
2012-03-22 08:40:53 51°17.669 2°51.889 6.9323 3.070731 29.827901 -2.458615
2012-03-22 08:40:58 51°17.684 2°51.875 6.9285 3.070834 29.829012 -2.458615
2012-03-22 08:41:03 51°17.698 2°51.86 6.9285 3.071041 29.830427 -2.458615
2012-03-22 08:41:08 51°17.712 2°51.846 6.9261 3.071041 29.830427 -2.458615
2012-03-22 08:41:13 51°17.726 2°51.831 6.9225 3.071144 29.831537 -2.458615
2012-03-22 08:41:18 51°17.741 2°51.817 6.9211 3.071041 29.832039 -2.458615
2012-03-22 08:41:23 51°17.755 2°51.803 6.9164 3.071041 29.832845 -2.458615
2012-03-22 08:41:28 51°17.769 2°51.788 6.9146 3.071041 29.833651 -2.458615
2012-03-22 08:41:33 51°17.783 2°51.774 6.9106 3.071144 29.835567 -2.458615
2012-03-22 08:41:38 51°17.797 2°51.759 6.9102 3.071144 29.835567 -2.458615
2012-03-22 08:41:43 51°17.811 2°51.744 6.9146 3.071144 29.836373 -2.458615
2012-03-22 08:41:48 51°17.825 2°51.729 6.9083 3.071144 29.83718 -2.458615
2012-03-22 08:41:52 51°17.836 2°51.716 6.9011 3.071041 29.837681 -2.458615
2012-03-22 08:41:58 51°17.853 2°51.697 6.9037 3.070627 29.83485 -2.458615
2012-03-22 08:42:03 51°17.866 2°51.68 6.8984 3.070524 29.836158 -2.458615
2012-03-22 08:42:08 51°17.88 2°51.663 6.8965 3.070524 29.836158 -2.458615
2012-03-22 08:42:12 51°17.89 2°51.65 6.8945 3.07011 29.83494 -2.458615
2012-03-22 08:42:18 51°17.907 2°51.63 6.8943 3.0698 29.83322 -2.458615
2012-03-22 08:42:23 51°17.92 2°51.613 6.8923 3.069386 29.831194 -2.458615
2012-03-22 08:42:28 51°17.933 2°51.596 6.8917 3.069179 29.832198 -2.458615
2012-03-22 08:42:33 51°17.947 2°51.579 6.8913 3.068972 29.832395 -2.458615
2012-03-22 08:42:38 51°17.961 2°51.564 6.8909 3.068972 29.832395 -2.458615
2012-03-22 08:42:43 51°17.975 2°51.549 6.8867 3.068766 29.831786 -2.458615
2012-03-22 08:42:48 51°17.99 2°51.535 6.8798 3.068559 29.83279 -2.458615
2012-03-22 08:42:53 51°18.004 2°51.521 6.882 3.068455 29.833292 -2.458615
2012-03-22 08:42:58 51°18.019 2°51.507 6.8795 3.068455 29.833292 -2.458615
2012-03-22 08:43:03 51°18.034 2°51.493 6.8774 3.068662 29.837129 -2.458615
2012-03-22 08:43:08 51°18.049 2°51.48 6.8761 3.068662 29.837129 -2.458615
2012-03-22 08:43:13 51°18.064 2°51.466 6.8706 3.068766 29.839047 -2.458615
2012-03-22 08:43:18 51°18.078 2°51.453 6.865 3.069179 29.843494 -2.458615
2012-03-22 08:43:23 51°18.093 2°51.439 6.8649 3.069386 29.848947 -2.458615
2012-03-22 08:43:28 51°18.108 2°51.425 6.8602 3.069697 29.855512 -2.458615
2012-03-22 08:43:33 51°18.123 2°51.411 6.8574 3.070834 29.86936 -2.458615
2012-03-22 08:43:38 51°18.138 2°51.398 6.8581 3.070834 29.86936 -2.458615
2012-03-22 08:43:43 51°18.152 2°51.384 6.8573 3.073731 29.902927 -2.458615
2012-03-22 08:43:48 51°18.167 2°51.37 6.8579 3.074248 29.911726 -2.458615
2012-03-22 08:43:52 51°18.179 2°51.358 6.8622 3.074662 29.917795 -2.458615
2012-03-22 08:43:58 51°18.196 2°51.341 6.855 3.075179 29.928217 -2.458615
2012-03-22 08:44:03 51°18.211 2°51.327 6.8496 3.075696 29.937022 -2.458615
2012-03-22 08:44:08 51°18.226 2°51.313 6.8529 3.075696 29.937022 -2.458615
2012-03-22 08:44:12 51°18.237 2°51.301 6.8536 3.07642 29.947245 -2.458615
2012-03-22 08:44:18 51°18.254 2°51.285 6.8363 3.076938 29.954432 -2.458615
2012-03-22 08:44:23 51°18.267 2°51.272 6.8314 3.077558 29.963544 -2.458615
2012-03-22 08:44:28 51°18.28 2°51.26 6.8182 3.078386 29.97245 -2.458615
2012-03-22 08:44:32 51°18.289 2°51.25 6.8105 3.079317 29.981658 -2.458615
2012-03-22 08:44:38 51°18.303 2°51.235 6.8055 3.079317 29.981658 -2.458615
2012-03-22 08:44:43 51°18.314 2°51.223 6.7999 3.080041 29.991888 -2.458615
2012-03-22 08:44:48 51°18.324 2°51.211 6.7955 3.080869 30.00242 -2.458615
2012-03-22 08:44:53 51°18.334 2°51.199 6.7926 3.082006 30.017108 -2.458615
2012-03-22 08:44:58 51°18.344 2°51.186 6.7864 3.083351 30.038095 -2.458615
2012-03-22 08:45:03 51°18.354 2°51.174 6.7813 3.084489 30.056049 -2.458615
2012-03-22 08:45:08 51°18.363 2°51.161 6.7797 3.084489 30.056049 -2.458615
2012-03-22 08:45:13 51°18.372 2°51.148 6.7715 3.085627 30.077272 -2.458615
2012-03-22 08:45:18 51°18.38 2°51.136 6.7679 3.086662 30.094945 -2.458615
2012-03-22 08:45:23 51°18.388 2°51.124 6.7669 3.0878 30.113741 -2.458615
2012-03-22 08:45:28 51°18.396 2°51.113 6.7581 3.088524 30.128902 -2.458615
2012-03-22 08:45:33 51°18.403 2°51.101 6.7537 3.089144 30.140501 -2.458615
2012-03-22 08:45:38 51°18.41 2°51.09 6.7444 3.089144 30.140501 -2.458615
2012-03-22 08:45:43 51°18.416 2°51.079 6.7352 3.089869 30.154857 -2.458615
2012-03-22 08:45:48 51°18.422 2°51.069 6.737 3.090489 30.166466 -2.458615
2012-03-22 08:45:53 51°18.428 2°51.058 6.732 3.091007 30.176962 -2.458615
2012-03-22 08:45:58 51°18.433 2°51.047 6.729 3.091524 30.186642 -2.458615
2012-03-22 08:46:03 51°18.438 2°51.036 6.7284 3.091938 30.195208 -2.458615
2012-03-22 08:46:08 51°18.443 2°51.024 6.7311 3.091938 30.195208 -2.458615
2012-03-22 08:46:13 51°18.447 2°51.014 6.7292 3.092662 30.209589 -2.458615
2012-03-22 08:46:18 51°18.451 2°51.003 6.7333 3.093386 30.224798 -2.458615
2012-03-22 08:46:23 51°18.456 2°50.993 6.7302 3.094317 30.240607 -2.458615
2012-03-22 08:46:28 51°18.461 2°50.984 6.7339 3.094938 30.253069 -2.458615
2012-03-22 08:46:32 51°18.465 2°50.977 6.7404 3.095559 30.264713 -2.458615
2012-03-22 08:46:38 51°18.471 2°50.969 6.7375 3.095559 30.264713 -2.458615
2012-03-22 08:46:43 51°18.477 2°50.965 6.7328 3.095972 30.272478 -2.458615
2012-03-22 08:46:48 51°18.483 2°50.962 6.7282 3.096179 30.275538 -2.458615
2012-03-22 08:46:53 51°18.489 2°50.96 6.7302 3.09649 30.27807 -2.458615
2012-03-22 08:46:58 51°18.495 2°50.96 6.7251 3.096593 30.278365 -2.458615
2012-03-22 08:47:03 51°18.5 2°50.962 6.7288 3.096697 30.277837 -2.458615
2012-03-22 08:47:08 51°18.504 2°50.965 6.7253 3.096697 30.277837 -2.458615
2012-03-22 08:47:12 51°18.507 2°50.968 6.7281 3.0968 30.276486 -2.458615
2012-03-22 08:47:18 51°18.512 2°50.974 6.7251 3.097007 30.277899 -2.458615
2012-03-22 08:47:23 51°18.514 2°50.98 6.7234 3.09711 30.279841 -2.458615
2012-03-22 08:47:28 51°18.516 2°50.987 6.7254 3.097317 30.2829 -2.458615
2012-03-22 08:47:33 51°18.518 2°50.995 6.7248 3.097214 30.283428 -2.458615
2012-03-22 08:47:38 51°18.518 2°51.003 6.7187 3.097214 30.283428 -2.458615
2012-03-22 08:47:43 51°18.517 2°51.011 6.7163 3.097421 30.287312 -2.458615
2012-03-22 08:47:48 51°18.515 2°51.019 6.7238 3.097317 30.287841 -2.458615
2012-03-22 08:47:52 51°18.513 2°51.025 6.72 3.097317 30.288664 -2.458615
2012-03-22 08:47:58 51°18.51 2°51.032 6.7256 3.097524 30.293372 -2.458615
2012-03-22 08:48:03 51°18.508 2°51.036 6.7159 3.097524 30.293372 -2.458615
2012-03-22 08:48:08 51°18.505 2°51.039 6.7245 3.097524 30.293372 -2.458615
2012-03-22 08:48:13 51°18.502 2°51.042 6.7257 3.097628 30.296138 -2.458615
2012-03-22 08:48:18 51°18.499 2°51.044 6.7245 3.097938 30.300319 -2.458615
2012-03-22 08:48:23 51°18.496 2°51.045 6.7237 3.097835 30.301672 -2.458615
2012-03-22 08:48:28 51°18.493 2°51.045 6.7214 3.097628 30.300259 -2.458615
2012-03-22 08:48:32 51°18.491 2°51.045 6.7267 3.097317 30.296902 -2.458615
2012-03-22 08:48:38 51°18.487 2°51.044 6.7251 3.097317 30.296902 -2.458615
2012-03-22 08:48:43 51°18.485 2°51.043 6.7238 3.09711 30.295488 -2.458615
2012-03-22 08:48:48 51°18.483 2°51.042 6.7255 3.096904 30.292427 -2.458615
2012-03-22 08:48:52 51°18.481 2°51.04 6.7315 3.096697 30.290189 -2.458615
2012-03-22 08:48:58 51°18.478 2°51.037 6.7297 3.096386 30.286009 -2.458615
2012-03-22 08:49:03 51°18.477 2°51.035 6.732 3.096283 30.285714 -2.458615
2012-03-22 08:49:08 51°18.475 2°51.032 6.7294 3.096283 30.285714 -2.458615
2012-03-22 08:49:12 51°18.475 2°51.03 6.7321 3.096283 30.284891 -2.458615
2012-03-22 08:49:18 51°18.473 2°51.027 6.7302 3.095869 30.281239 -2.458615
2012-03-22 08:49:23 51°18.472 2°51.024 6.7317 3.096179 30.284595 -2.458615
2012-03-22 08:49:28 51°18.471 2°51.021 6.7278 3.095973 30.281534 -2.458615
2012-03-22 08:49:33 51°18.47 2°51.018 6.7271 3.095766 30.27765 -2.458615
2012-03-22 08:49:38 51°18.469 2°51.016 6.7243 3.095766 30.27765 -2.458615
2012-03-22 08:49:43 51°18.468 2°51.013 6.7234 3.095766 30.276827 -2.458615
2012-03-22 08:49:48 51°18.467 2°51.01 6.719 3.095766 30.276003 -2.458615
2012-03-22 08:49:52 51°18.466 2°51.008 6.714 3.095869 30.277122 -2.458615
2012-03-22 08:49:58 51°18.465 2°51.005 6.7129 3.095352 30.272352 -2.458615